<- Previous Day | Today | Next Day ->

All Data for 26 November 2021

 

Time A - D Temp A - D Dew Point A - D Humidity A - D Pressure A - D Wind A - D Wind Dir Gust A - D Rain Rate A - D Rain Total
00:00 6.6 3.4 80 1015.8 7.6 N 9.8 0.0 0.0
00:01 6.7 3.5 80 1015.7 5.4 NW 9.8 0.0 0.0
00:02 6.7 3.5 80 1015.7 5.4 NW 9.8 0.0 0.0
00:03 6.7 3.5 80 1015.8 6.0 N 9.8 0.0 0.0
00:04 6.7 3.5 80 1015.7 6.0 W 9.8 0.0 0.0
00:05 6.7 3.5 80 1015.8 3.8 N 9.8 0.0 0.0
00:06 6.7 3.5 80 1015.9 4.5 NW 9.8 0.0 0.0
00:07 6.8 3.6 80 1015.8 6.9 SW 9.8 0.0 0.0
00:08 6.8 3.6 80 1015.7 6.9 NW 9.2 0.0 0.0
00:09 6.8 3.6 80 1015.7 4.5 N 9.2 0.0 0.0
00:10 6.8 3.6 80 1015.9 5.4 NW 7.6 0.0 0.0
00:11 6.8 3.6 80 1015.7 7.6 NW 7.6 0.0 0.0
00:12 6.8 3.6 80 1015.7 7.6 W 7.6 0.0 0.0
00:13 6.8 3.6 80 1015.6 8.3 N 8.3 0.0 0.0
00:14 6.8 3.6 80 1015.5 8.3 N 8.3 0.0 0.0
00:15 6.8 3.6 80 1015.6 8.3 N 8.3 0.0 0.0
00:16 6.8 3.6 80 1015.4 8.3 N 8.3 0.0 0.0
00:17 6.8 3.4 79 1015.4 5.4 SW 8.3 0.0 0.0
00:18 6.8 3.4 79 1015.4 8.3 NW 8.3 0.0 0.0
00:19 6.8 3.4 79 1015.3 5.4 WNW 8.3 0.0 0.0
00:20 6.8 3.4 79 1015.3 5.4 WNW 8.3 0.0 0.0
00:21 6.8 3.4 79 1015.2 9.2 NW 9.2 0.0 0.0
00:22 6.8 3.4 79 1015.2 9.2 NW 9.2 0.0 0.0
00:23 6.8 3.4 79 1015.2 9.2 NW 9.2 0.0 0.0
00:24 6.7 3.3 79 1015.2 9.2 NW 9.2 0.0 0.0
00:25 6.7 3.3 79 1015.0 9.8 N 9.8 0.0 0.0
00:26 6.7 3.1 78 1014.8 6.9 NW 9.8 0.0 0.0
00:27 6.7 3.1 78 1015.1 9.2 NW 9.8 0.0 0.0
00:28 6.7 3.1 78 1015.3 11.4 NW 11.4 0.0 0.0
00:29 6.7 3.1 78 1015.2 10.7 S 11.4 0.0 0.0
00:30 6.7 3.1 78 1015.0 12.1 NW 12.1 0.0 0.0
00:31 6.7 3.1 78 1014.9 12.1 NW 12.1 0.0 0.0
00:32 6.7 3.1 78 1014.9 12.1 W 12.1 0.0 0.0
00:33 6.7 3.3 79 1014.9 12.1 W 12.1 0.0 0.0
00:34 6.7 3.3 79 1014.9 12.1 W 12.1 0.0 0.0
00:35 6.7 3.3 79 1014.7 9.2 NW 12.1 0.0 0.0
00:36 6.8 3.4 79 1014.9 12.1 WNW 12.1 0.0 0.0
00:37 6.8 3.4 79 1014.9 12.1 NW 12.1 0.0 0.0
00:38 6.8 3.4 79 1014.8 12.1 NW 12.1 0.0 0.0
00:39 6.8 3.4 79 1014.7 9.8 WNW 12.1 0.0 0.0
00:40 6.8 3.4 79 1014.7 9.8 W 12.1 0.0 0.0
00:41 6.8 3.4 79 1014.7 13.6 SW 13.6 0.0 0.0
00:42 6.8 3.4 79 1014.7 10.7 W 13.6 0.0 0.0
00:43 6.8 3.4 79 1014.6 10.7 NW 13.6 0.0 0.0
00:44 6.9 3.5 79 1014.7 12.1 NW 13.6 0.0 0.0
00:45 6.9 3.5 79 1014.8 8.3 NW 13.6 0.0 0.0
00:46 6.8 3.4 79 1014.7 7.6 W 13.6 0.0 0.0
00:47 6.8 3.4 79 1014.4 10.7 NW 13.6 0.0 0.0
00:48 6.8 3.4 79 1014.5 13.6 N 13.6 0.0 0.0
00:49 6.8 3.4 79 1014.7 8.3 NW 13.6 0.0 0.0
00:50 6.8 3.4 79 1014.6 9.8 W 13.6 0.0 0.0
00:51 6.8 3.4 79 1014.8 9.2 NW 13.6 0.0 0.0
00:52 6.8 3.4 79 1014.5 7.6 W 13.6 0.0 0.0
00:53 6.8 3.4 79 1014.5 9.2 NW 13.6 0.0 0.0
00:54 6.8 3.4 79 1014.5 9.2 NW 13.6 0.0 0.0
00:55 6.8 3.4 79 1014.6 6.0 W 13.6 0.0 0.0
00:56 6.8 3.4 79 1014.5 8.3 NW 13.6 0.0 0.0
00:57 6.8 3.4 79 1014.4 7.6 E 13.6 0.0 0.0
00:58 6.7 3.3 79 1014.4 7.6 NW 10.7 0.0 0.0
00:59 6.7 3.3 79 1014.4 6.9 NW 10.7 0.0 0.0
01:00 6.7 3.3 79 1014.4 11.4 WNW 11.4 0.0 0.0
01:01 6.7 3.3 79 1014.4 11.4 WNW 11.4 0.0 0.0
01:02 6.7 3.3 79 1014.4 11.4 WNW 11.4 0.0 0.0
01:03 6.7 3.3 79 1014.5 11.4 WNW 11.4 0.0 0.0
01:04 6.7 3.3 79 1014.5 11.4 WNW 11.4 0.0 0.0
01:05 6.7 3.3 79 1014.3 11.4 WNW 11.4 0.0 0.0
01:06 6.7 3.3 79 1014.3 11.4 WNW 11.4 0.0 0.0
01:07 6.7 3.3 79 1014.4 6.9 NW 11.4 0.0 0.0
01:08 6.7 3.3 79 1014.1 6.0 NW 11.4 0.0 0.0
01:09 6.7 3.3 79 1014.1 5.4 W 11.4 0.0 0.0
01:10 6.7 3.3 79 1014.0 6.0 NW 11.4 0.0 0.0
01:11 6.7 3.3 79 1014.1 6.9 W 11.4 0.0 0.0
01:12 6.7 3.3 79 1014.2 6.9 SW 11.4 0.0 0.0
01:13 6.7 3.3 79 1013.9 5.4 NE 11.4 0.0 0.0
01:14 6.7 3.3 79 1013.9 5.4 W 11.4 0.0 0.0
01:15 6.7 3.3 79 1014.1 4.5 NW 11.4 0.0 0.0
01:16 6.7 3.5 80 1013.9 4.5 SW 11.4 0.0 0.0
01:17 6.7 3.5 80 1013.8 4.5 SW 6.9 0.0 0.0
01:18 6.7 3.5 80 1013.6 4.5 NW 6.9 0.0 0.0
01:19 6.6 3.4 80 1013.8 5.4 WNW 6.9 0.0 0.0
01:20 6.6 3.4 80 1013.9 6.0 NW 6.9 0.0 0.0
01:21 6.6 3.4 80 1013.7 8.3 NW 8.3 0.0 0.0
01:22 6.6 3.4 80 1013.6 6.0 W 8.3 0.0 0.0
01:23 6.6 3.4 80 1013.8 6.9 W 8.3 0.0 0.0
01:24 6.6 3.4 80 1013.6 5.4 W 8.3 0.0 0.0
01:25 6.6 3.4 80 1013.5 6.0 W 8.3 0.0 0.0
01:26 6.6 3.4 80 1013.7 6.0 N 8.3 0.0 0.0
01:27 6.6 3.4 80 1013.8 6.9 NW 8.3 0.0 0.0
01:28 6.6 3.4 80 1013.7 6.0 W 8.3 0.0 0.0
01:29 6.6 3.6 81 1013.7 6.0 N 8.3 0.0 0.0
01:30 6.6 3.6 81 1013.7 6.0 N 8.3 0.0 0.0
01:31 6.6 3.6 81 1013.4 6.0 W 8.3 0.0 0.0
01:32 6.6 3.6 81 1013.5 6.0 NW 7.6 0.0 0.0
01:33 6.6 3.6 81 1013.5 5.4 W 7.6 0.0 0.0
01:34 6.6 3.6 81 1013.5 6.9 W 7.6 0.0 0.0
01:35 6.6 3.6 81 1013.5 7.6 N 7.6 0.0 0.0
01:36 6.6 3.6 81 1013.6 5.4 W 7.6 0.0 0.0
01:37 6.7 3.7 81 1013.6 9.2 S 9.2 0.0 0.0
01:38 6.7 3.7 81 1013.7 9.2 NW 9.2 0.0 0.0
01:39 6.7 3.7 81 1013.5 6.0 W 9.2 0.0 0.0
01:40 6.7 3.8 82 1013.6 6.9 NW 9.2 0.0 0.0
01:41 6.7 3.8 82 1013.4 6.9 W 9.2 0.0 0.0
01:42 6.7 3.8 82 1013.6 5.4 SW 9.2 0.0 0.0
01:43 6.7 3.8 82 1013.5 6.0 SW 9.2 0.0 0.0
01:44 6.7 3.8 82 1013.4 4.5 NW 9.2 0.0 0.0
01:45 6.7 3.8 82 1013.4 6.9 NE 9.2 0.0 0.0
01:46 6.8 4.1 83 1013.4 6.9 NW 9.2 0.0 0.0
01:47 6.8 4.1 83 1013.0 4.5 NE 9.2 0.0 0.0
01:48 6.8 4.1 83 1013.1 5.4 WNW 9.2 0.0 0.0
01:49 6.8 4.1 83 1012.9 6.0 S 6.9 0.0 0.0
01:50 6.8 4.1 83 1013.2 6.0 W 6.9 0.0 0.0
01:51 6.8 4.1 83 1013.0 3.8 W 6.9 0.0 0.0
01:52 6.8 4.1 83 1013.2 4.5 W 6.9 0.0 0.0
01:53 6.7 4.2 84 1013.1 3.1 W 6.9 0.0 0.0
01:54 6.7 4.2 84 1013.1 4.5 WNW 6.9 0.0 0.0
01:55 6.7 4.2 84 1013.1 5.4 W 6.9 0.0 0.0
01:56 6.7 4.2 84 1013.1 6.0 N 6.0 0.0 0.0
01:57 6.7 4.2 84 1013.1 6.9 W 6.9 0.0 0.0
01:58 6.7 4.2 84 1013.1 6.9 W 6.9 0.0 0.0
01:59 6.7 4.2 84 1012.9 6.0 W 6.9 0.0 0.0
02:00 6.7 4.2 84 1012.7 4.5 SW 6.9 0.0 0.0
02:01 6.7 4.2 84 1012.9 4.5 SW 6.9 0.0 0.0
02:02 6.7 4.2 84 1012.8 9.2 W 9.2 0.0 0.0
02:03 6.7 4.2 84 1013.0 9.2 W 9.2 0.0 0.0
02:04 6.7 4.2 84 1012.8 9.2 W 9.2 0.0 0.0
02:05 6.7 4.2 84 1012.7 9.2 NW 9.2 0.0 0.0
02:06 6.7 4.4 85 1012.8 11.4 W 11.4 0.0 0.0
02:07 6.7 4.4 85 1012.6 8.3 NW 11.4 0.0 0.0
02:08 6.7 4.4 85 1012.6 9.2 W 11.4 0.0 0.0
02:09 6.7 4.4 85 1012.7 9.8 NW 11.4 0.0 0.0
02:10 6.7 4.4 85 1012.5 10.7 W 11.4 0.0 0.0
02:11 6.7 4.4 85 1012.6 10.7 W 11.4 0.0 0.0
02:12 6.7 4.4 85 1012.7 8.3 W 11.4 0.0 0.0
02:13 6.8 4.5 85 1012.7 8.3 W 11.4 0.0 0.0
02:14 6.8 4.5 85 1012.8 8.3 NW 11.4 0.0 0.0
02:15 6.8 4.5 85 1012.5 6.9 W 11.4 0.0 0.0
02:16 6.8 4.5 85 1012.6 7.6 W 11.4 0.0 0.0
02:17 6.8 4.5 85 1012.5 9.2 W 10.7 0.0 0.0
02:18 6.8 4.6 86 1012.4 12.1 W 12.1 0.0 0.0
02:19 6.9 4.7 86 1012.5 9.2 SW 12.1 0.8 0.1
02:20 6.9 4.7 86 1012.4 9.8 SW 12.1 0.8 0.1
02:21 6.9 4.7 86 1012.4 10.7 W 12.1 0.8 0.1
02:22 6.9 4.7 86 1012.5 8.3 SW 12.1 0.8 0.1
02:23 6.9 4.7 86 1012.4 8.3 W 12.1 0.8 0.1
02:24 6.9 4.7 86 1012.5 7.6 SW 12.1 0.0 0.1
02:25 6.9 4.7 86 1012.5 8.3 NW 12.1 0.0 0.1
02:26 6.9 4.7 86 1012.5 8.3 NW 12.1 0.0 0.1
02:27 6.9 4.9 87 1012.4 10.7 NW 12.1 0.0 0.1
02:28 6.9 4.9 87 1012.3 10.7 NW 12.1 0.0 0.1
02:29 6.9 4.9 87 1012.3 8.3 W 11.4 0.0 0.1
02:30 6.9 4.9 87 1012.3 8.3 W 11.4 0.0 0.1
02:31 6.9 4.9 87 1012.2 10.7 W 12.1 0.0 0.1
02:32 6.9 4.9 87 1012.1 10.7 SW 12.1 0.0 0.1
02:33 6.9 4.9 87 1012.1 6.9 W 12.1 0.0 0.1
02:34 6.9 5.1 88 1012.2 8.3 W 12.1 0.0 0.1
02:35 6.9 5.1 88 1012.2 8.3 W 12.1 0.0 0.1
02:36 6.9 5.1 88 1012.1 6.9 W 12.1 0.8 0.1
02:37 6.9 5.1 88 1012.2 6.9 WNW 12.1 1.5 0.2
02:38 6.9 5.1 88 1012.2 10.7 NW 12.1 1.5 0.2
02:39 6.8 5.0 88 1012.1 8.3 SW 12.1 1.5 0.2
02:40 6.8 5.0 88 1012.2 8.3 SW 12.1 2.3 0.3
02:41 6.8 5.1 89 1011.9 9.2 NW 10.7 2.3 0.3
02:42 6.8 5.1 89 1012.1 13.6 WSW 13.6 1.5 0.3
02:43 6.8 5.1 89 1011.9 10.7 W 13.6 1.5 0.3
02:44 6.8 5.1 89 1011.9 10.7 W 13.6 1.5 0.3
02:45 6.8 5.1 89 1012.0 10.7 W 13.6 1.5 0.3
02:46 6.9 5.2 89 1011.8 9.2 W 13.6 0.8 0.3
02:47 6.9 5.2 89 1011.9 9.2 W 13.6 0.8 0.4
02:48 6.9 5.2 89 1012.0 8.3 W 13.6 0.8 0.4
02:49 6.9 5.2 89 1011.8 8.3 W 13.6 0.8 0.4
02:50 6.9 5.2 89 1011.7 7.6 WNW 13.6 0.8 0.4
02:51 6.9 5.2 89 1011.6 9.2 NW 13.6 0.8 0.4
02:52 6.9 5.2 89 1011.6 10.7 NW 13.6 0.0 0.4
02:53 6.9 5.2 89 1011.7 6.0 NW 10.7 0.0 0.4
02:54 6.9 5.2 89 1011.5 8.3 W 10.7 0.0 0.4
02:55 6.9 5.2 89 1011.6 11.4 W 11.4 0.0 0.4
02:56 6.9 5.2 89 1011.5 11.4 W 11.4 0.0 0.4
02:57 6.9 5.2 89 1011.5 7.6 SW 11.4 0.0 0.4
02:58 6.9 5.2 89 1011.3 9.8 W 11.4 0.0 0.4
02:59 6.9 5.4 90 1011.3 7.6 NNW 11.4 0.0 0.4
03:00 6.9 5.4 90 1011.4 7.6 NNW 11.4 0.0 0.4
03:01 6.9 5.4 90 1011.2 7.6 NNW 11.4 0.0 0.4
03:02 6.9 5.4 90 1011.6 7.6 NNW 11.4 0.0 0.4
03:03 6.9 5.4 90 1011.3 7.6 NNW 11.4 0.0 0.4
03:04 6.9 5.4 90 1011.4 7.6 NNW 11.4 0.0 0.4
03:05 6.9 5.4 90 1011.1 7.6 NNW 11.4 0.0 0.4
03:06 6.9 5.4 90 1011.1 7.6 NW 9.8 0.0 0.4
03:07 6.9 5.4 90 1011.3 7.6 SW 9.8 0.0 0.4
03:08 6.9 5.4 90 1011.2 7.6 SW 9.2 0.0 0.4
03:09 6.9 5.4 90 1011.0 7.6 W 7.6 0.0 0.4
03:10 6.9 5.4 90 1011.1 7.6 W 7.6 0.0 0.4
03:11 6.9 5.4 90 1011.3 9.2 W 9.2 0.0 0.4
03:12 6.9 5.4 90 1010.8 9.2 W 9.2 0.0 0.4
03:13 6.9 5.4 90 1011.0 8.3 W 9.2 0.0 0.4
03:14 6.9 5.4 90 1011.0 8.3 NW 9.2 0.0 0.4
03:15 6.9 5.4 90 1011.0 8.3 SW 9.2 0.0 0.4
03:16 6.9 5.4 90 1010.8 8.3 SW 9.2 0.0 0.4
03:17 6.9 5.4 90 1010.7 6.0 SW 9.2 0.0 0.4
03:18 6.9 5.4 90 1010.6 8.3 NW 9.2 0.0 0.4
03:19 7.0 5.5 90 1010.7 8.3 W 9.2 0.0 0.4
03:20 7.0 5.5 90 1010.7 7.6 W 9.2 0.0 0.4
03:21 7.0 5.5 90 1010.9 8.3 W 9.2 0.0 0.4
03:22 7.0 5.5 90 1010.9 8.3 W 8.3 0.0 0.4
03:23 7.0 5.5 90 1010.6 6.0 W 8.3 0.0 0.4
03:24 7.0 5.5 90 1010.9 6.0 W 8.3 0.0 0.4
03:25 7.0 5.5 90 1010.5 6.9 W 8.3 0.0 0.4
03:26 7.0 5.5 90 1010.7 9.8 SW 9.8 0.0 0.4
03:27 7.0 5.5 90 1010.7 9.8 W 9.8 0.0 0.4
03:28 7.0 5.5 90 1010.9 8.3 W 9.8 0.0 0.4
03:29 7.0 5.5 90 1010.6 6.9 SW 9.8 0.0 0.4
03:30 7.0 5.5 90 1010.6 9.2 SW 9.8 0.0 0.4
03:31 7.0 5.5 90 1010.8 9.2 W 9.8 0.0 0.4
03:32 7.1 5.6 90 1010.7 9.2 WSW 9.8 0.0 0.4
03:33 7.1 5.6 90 1010.6 6.0 SW 9.8 0.0 0.4
03:34 7.1 5.6 90 1010.6 7.6 W 9.8 0.0 0.4
03:35 7.1 5.6 90 1010.4 7.6 W 9.8 0.0 0.4
03:36 7.1 5.6 90 1010.7 8.3 W 9.8 0.0 0.4
03:37 7.1 5.6 90 1010.5 9.2 W 9.2 0.0 0.4
03:38 7.1 5.6 90 1010.5 9.2 W 9.2 0.0 0.4
03:39 7.1 5.6 90 1010.6 7.6 SW 9.2 0.0 0.4
03:40 7.1 5.6 90 1010.4 6.9 SW 9.2 0.0 0.4
03:41 7.2 5.7 90 1010.3 6.9 W 9.2 0.0 0.4
03:42 7.2 5.7 90 1010.6 6.9 WSW 9.2 0.0 0.4
03:43 7.2 5.7 90 1010.4 6.9 W 9.2 0.0 0.4
03:44 7.2 5.7 90 1010.5 6.9 SW 9.2 0.0 0.4
03:45 7.2 5.7 90 1010.3 12.1 W 12.1 0.0 0.4
03:46 7.2 5.7 90 1010.2 6.9 W 12.1 0.0 0.4
03:47 7.2 5.7 90 1010.1 6.9 SW 12.1 0.0 0.4
03:48 7.2 5.7 90 1009.9 9.2 W 12.1 0.0 0.4
03:49 7.2 5.7 90 1010.1 7.6 W 12.1 0.0 0.4
03:50 7.2 5.7 90 1009.9 8.3 W 12.1 0.0 0.4
03:51 7.2 5.7 90 1010.1 7.6 W 12.1 0.8 0.4
03:52 7.2 5.7 90 1009.9 7.6 WNW 12.1 0.8 0.4
03:53 7.2 5.7 90 1010.1 6.0 SW 12.1 1.5 0.5
03:54 7.2 5.7 90 1009.8 6.0 W 12.1 1.5 0.5
03:55 7.2 5.7 90 1010.2 6.9 W 12.1 1.5 0.5
03:56 7.2 5.7 90 1009.9 6.9 NW 12.1 0.8 0.5
03:57 7.2 5.7 90 1010.0 8.3 W 9.8 0.8 0.5
03:58 7.2 5.7 90 1009.7 7.6 WSW 9.8 0.0 0.5
03:59 7.3 5.8 90 1009.9 5.4 W 8.3 0.0 0.5
04:00 7.3 5.8 90 1009.9 5.4 W 8.3 0.0 0.5
04:01 7.3 5.8 90 1010.0 8.3 W 8.3 0.0 0.5
04:02 7.3 5.8 90 1009.5 8.3 W 8.3 0.0 0.5
04:03 7.3 5.8 90 1009.5 8.3 WSW 8.3 0.0 0.5
04:04 7.3 5.8 90 1009.6 7.6 SW 8.3 0.0 0.5
04:05 7.3 5.8 90 1009.5 9.8 W 9.8 0.0 0.5
04:06 7.3 5.8 90 1009.5 9.8 W 9.8 0.0 0.5
04:07 7.3 5.8 90 1009.7 7.6 SW 9.8 0.0 0.5
04:08 7.3 5.8 90 1009.6 8.3 W 9.8 0.0 0.5
04:09 7.3 5.8 90 1009.3 7.6 SW 9.8 0.0 0.5
04:10 7.3 5.8 90 1009.4 7.6 SW 9.8 0.0 0.5
04:11 7.3 5.8 90 1009.2 9.2 W 9.8 0.0 0.5
04:12 7.3 5.8 90 1009.3 6.0 SW 9.8 0.0 0.5
04:13 7.4 5.9 90 1009.4 7.6 SW 9.8 0.0 0.5
04:14 7.3 5.8 90 1009.2 6.9 NW 9.8 0.0 0.5
04:15 7.4 5.9 90 1009.2 6.9 SW 9.8 0.0 0.5
04:16 7.3 5.8 90 1009.1 9.8 SW 9.8 0.0 0.5
04:17 7.4 5.9 90 1009.0 9.8 W 9.8 0.0 0.5
04:18 7.4 5.9 90 1009.1 7.6 W 9.8 0.0 0.5
04:19 7.4 5.9 90 1008.9 7.6 W 9.8 0.0 0.5
04:20 7.4 6.0 91 1008.9 6.0 NW 9.8 0.0 0.5
04:21 7.4 6.0 91 1009.1 6.0 W 9.8 0.0 0.5
04:22 7.4 6.0 91 1009.0 8.3 SW 9.8 0.0 0.5
04:23 7.4 6.0 91 1009.2 8.3 W 9.8 0.0 0.5
04:24 7.4 6.0 91 1008.9 6.9 W 9.8 0.0 0.5
04:25 7.4 6.0 91 1009.2 6.9 W 9.8 0.0 0.5
04:26 7.4 6.0 91 1008.9 6.9 SW 9.8 0.0 0.5
04:27 7.5 5.1 85 1008.9 9.2 W 9.8 0.0 0.5
04:28 7.5 5.1 85 1008.9 9.2 W 9.2 0.0 0.5
04:29 7.6 5.2 85 1009.0 14.5 NW 14.5 0.0 0.5
04:30 7.6 5.2 85 1008.7 9.2 SW 14.5 0.0 0.6
04:31 7.6 5.2 85 1008.9 20.6 SW 20.6 0.8 0.6
04:32 7.6 5.4 86 1008.9 16.8 W 20.6 0.8 0.6
04:33 7.7 5.5 86 1008.8 10.7 SW 20.6 0.8 0.6
04:34 7.7 5.5 86 1008.8 10.7 SW 20.6 0.8 0.6
04:35 7.8 5.6 86 1008.7 15.2 W 20.6 0.8 0.6
04:36 7.8 5.6 86 1008.8 15.2 W 20.6 0.0 0.6
04:37 7.8 5.6 86 1008.8 16.8 W 20.6 0.0 0.6
04:38 7.9 5.7 86 1008.5 15.2 W 20.6 0.0 0.6
04:39 7.9 5.7 86 1008.5 15.9 W 20.6 0.0 0.6
04:40 7.9 5.7 86 1008.6 18.3 NW 20.6 0.0 0.6
04:41 7.9 5.7 86 1008.3 22.1 NW 22.1 0.0 0.6
04:42 8.0 5.8 86 1008.4 22.1 W 22.1 0.0 0.6
04:43 7.9 5.7 86 1008.3 9.8 W 22.1 0.0 0.6
04:44 7.9 5.7 86 1008.3 9.8 W 22.1 0.0 0.6
04:45 7.9 5.5 85 1008.1 10.7 W 22.1 0.0 0.6
04:46 7.9 5.5 85 1008.0 10.7 W 22.1 0.0 0.6
04:47 7.8 5.4 85 1008.0 9.8 W 22.1 0.0 0.6
04:48 7.8 5.4 85 1008.0 10.7 W 22.1 0.0 0.6
04:49 7.8 5.4 85 1008.0 9.2 W 22.1 0.0 0.6
04:50 7.8 5.4 85 1008.1 15.2 W 22.1 0.0 0.6
04:51 7.7 5.3 85 1008.1 15.9 W 22.1 0.0 0.6
04:52 7.7 5.2 84 1008.0 12.1 W 22.1 0.0 0.6
04:53 7.7 5.2 84 1008.3 13.0 W 15.9 0.0 0.6
04:54 7.7 5.2 84 1008.3 12.1 NW 15.9 0.0 0.6
04:55 7.6 5.1 84 1007.9 12.1 W 15.9 0.0 0.6
04:56 7.6 5.1 84 1007.9 11.4 W 15.9 0.0 0.6
04:57 7.6 5.1 84 1007.8 10.7 W 15.9 0.0 0.6
04:58 7.6 5.1 84 1008.0 10.7 W 15.9 0.0 0.6
04:59 7.6 5.1 84 1007.9 10.7 SW 15.9 0.0 0.6
05:00 7.6 5.1 84 1007.9 8.3 W 15.9 0.0 0.6
05:01 7.6 5.1 84 1007.8 8.3 W 15.9 0.0 0.6
05:02 7.6 5.1 84 1007.9 8.3 W 13.0 0.0 0.6
05:03 7.6 5.1 84 1008.0 8.3 W 13.0 0.0 0.6
05:04 7.6 5.1 84 1008.0 8.3 W 12.1 0.0 0.6
05:05 7.6 5.1 84 1007.7 8.3 W 12.1 0.0 0.6
05:06 7.6 5.1 84 1007.8 8.3 W 11.4 0.0 0.6
05:07 7.5 5.0 84 1007.9 9.8 NW 11.4 0.0 0.6
05:08 7.6 5.1 84 1007.8 10.7 SW 11.4 0.0 0.6
05:09 7.6 5.1 84 1007.6 10.7 W 11.4 0.8 0.6
05:10 7.6 5.1 84 1007.7 9.8 W 11.4 0.8 0.6
05:11 7.6 5.2 85 1007.7 9.2 W 11.4 0.8 0.6
05:12 7.6 5.2 85 1007.5 11.4 W 11.4 0.8 0.6
05:13 7.6 5.2 85 1007.5 11.4 NW 11.4 0.0 0.6
05:14 7.6 5.2 85 1007.6 11.4 SW 11.4 0.0 0.6
05:15 7.6 5.2 85 1007.7 11.4 NW 11.4 0.0 0.6
05:16 7.7 5.3 85 1007.4 12.1 NW 12.1 0.0 0.6
05:17 7.7 5.3 85 1007.5 18.3 W 18.3 0.0 0.6
05:18 7.7 5.3 85 1007.4 9.8 SW 18.3 0.0 0.6
05:19 7.8 5.4 85 1007.5 12.1 NW 18.3 0.0 0.6
05:20 7.8 5.6 86 1007.6 12.1 W 18.3 0.0 0.6
05:21 7.8 5.6 86 1007.5 13.6 NW 18.3 0.0 0.6
05:22 7.8 5.6 86 1007.4 8.3 SW 18.3 0.0 0.6
05:23 7.8 5.6 86 1007.4 13.0 W 18.3 0.0 0.6
05:24 7.8 5.6 86 1007.4 8.3 SW 18.3 0.0 0.6
05:25 7.9 5.7 86 1007.3 12.1 NW 18.3 0.0 0.6
05:26 7.9 5.7 86 1007.4 10.7 W 18.3 0.0 0.6
05:27 7.9 5.7 86 1007.4 13.6 W 13.6 0.0 0.6
05:28 7.9 5.7 86 1007.3 9.2 W 13.6 0.0 0.6
05:29 8.0 5.8 86 1007.2 6.9 WNW 13.6 0.0 0.6
05:30 8.0 5.8 86 1007.2 12.1 NW 13.6 0.0 0.6
05:31 8.0 5.8 86 1007.2 12.1 S 13.6 0.0 0.6
05:32 8.0 5.8 86 1007.3 9.2 W 13.6 0.0 0.6
05:33 8.0 5.8 86 1007.0 9.8 W 13.6 0.0 0.6
05:34 8.0 5.8 86 1007.2 10.7 SE 13.6 0.0 0.6
05:35 8.0 5.8 86 1007.2 11.4 W 13.6 0.0 0.6
05:36 8.0 5.8 86 1007.0 13.6 SW 13.6 0.0 0.6
05:37 8.0 5.8 86 1007.1 10.7 NW 13.6 0.0 0.6
05:38 8.1 5.9 86 1007.1 12.1 WSW 13.6 0.0 0.6
05:39 8.1 5.9 86 1006.8 13.6 W 13.6 0.0 0.6
05:40 8.1 5.9 86 1007.0 13.6 W 13.6 0.0 0.6
05:41 8.2 5.8 85 1006.7 9.2 W 13.6 0.0 0.6
05:42 8.2 5.8 85 1006.9 10.7 W 13.6 0.0 0.6
05:43 8.2 5.8 85 1006.9 15.9 W 15.9 0.0 0.6
05:44 8.2 5.8 85 1006.9 13.6 NW 15.9 0.0 0.6
05:45 8.2 5.8 85 1007.1 13.6 WNW 15.9 0.0 0.6
05:46 8.2 5.8 85 1007.1 13.6 WNW 15.9 0.0 0.6
05:47 8.2 5.8 85 1006.8 13.6 NW 15.9 0.0 0.6
05:48 8.3 5.9 85 1006.9 13.0 SW 15.9 0.0 0.6
05:49 8.3 5.9 85 1006.9 13.0 W 15.9 0.0 0.6
05:50 8.3 5.9 85 1006.9 12.1 SW 15.9 0.0 0.6
05:51 8.3 5.9 85 1006.9 12.1 W 15.9 0.0 0.6
05:52 8.3 5.9 85 1007.0 12.1 W 15.9 0.0 0.6
05:53 8.3 5.9 85 1006.9 10.7 SW 15.9 0.0 0.6
05:54 8.3 5.9 85 1006.9 15.9 W 15.9 0.0 0.6
05:55 8.4 6.0 85 1006.5 13.6 WNW 15.9 0.0 0.6
05:56 8.4 6.0 85 1006.4 9.8 N 15.9 0.0 0.6
05:57 8.4 6.0 85 1006.4 13.0 W 15.9 0.0 0.6
05:58 8.4 5.9 84 1006.4 12.1 N 15.9 0.0 0.6
05:59 8.4 5.9 84 1006.6 14.5 W 15.9 0.0 0.6
06:00 8.4 5.9 84 1006.7 14.5 NW 15.9 0.0 0.6
06:01 8.4 5.9 84 1006.6 13.6 W 15.9 0.0 0.6
06:02 8.4 5.9 84 1006.8 15.9 NW 15.9 0.0 0.6
06:03 8.5 6.0 84 1006.3 12.1 NW 15.9 0.0 0.6
06:04 8.5 6.0 84 1006.7 14.5 W 15.9 0.0 0.6
06:05 8.5 6.0 84 1006.8 9.8 SW 15.9 0.0 0.6
06:06 8.5 6.0 84 1006.5 8.3 N 15.9 0.0 0.6
06:07 8.5 6.0 84 1006.5 16.8 W 16.8 0.0 0.6
06:08 8.5 6.0 84 1006.6 16.8 W 16.8 0.0 0.6
06:09 8.5 6.0 84 1006.2 21.3 W 21.3 0.0 0.6
06:10 8.4 5.9 84 1006.3 15.9 W 21.3 0.0 0.6
06:11 8.4 5.9 84 1006.4 13.0 W 21.3 0.0 0.6
06:12 8.4 5.9 84 1006.1 13.6 W 21.3 0.0 0.6
06:13 8.4 5.9 84 1006.2 12.1 SW 21.3 0.0 0.6
06:14 8.4 5.9 84 1006.2 12.1 SW 21.3 0.0 0.6
06:15 8.4 5.9 84 1006.3 11.4 NW 21.3 0.0 0.6
06:16 8.4 5.9 84 1006.3 9.2 W 21.3 0.0 0.6
06:17 8.4 5.9 84 1006.0 8.3 W 21.3 0.0 0.6
06:18 8.4 5.9 84 1006.2 13.6 NW 21.3 0.0 0.6
06:19 8.4 5.9 84 1006.3 9.2 W 21.3 0.0 0.6
06:20 8.4 5.9 84 1006.0 9.2 W 15.9 0.0 0.6
06:21 8.4 5.9 84 1006.1 10.7 SW 13.6 0.0 0.6
06:22 8.4 5.9 84 1006.2 10.7 W 13.6 0.0 0.6
06:23 8.4 5.9 84 1006.0 10.7 W 13.6 0.0 0.6
06:24 8.4 6.0 85 1006.2 9.8 WSW 13.6 0.0 0.6
06:25 8.4 6.0 85 1005.9 17.4 W 18.3 0.0 0.7
06:26 8.4 6.0 85 1006.0 17.4 NW 18.3 0.8 0.7
06:27 8.4 6.0 85 1005.7 17.4 W 18.3 0.8 0.7
06:28 8.4 6.0 85 1006.1 20.6 W 20.6 0.8 0.8
06:29 8.4 6.0 85 1005.7 13.6 W 20.6 1.5 0.8
06:30 8.5 6.1 85 1005.7 16.8 W 20.6 1.5 0.8
06:31 8.5 6.3 86 1005.7 13.0 W 20.6 0.8 0.8
06:32 8.5 6.3 86 1005.9 9.2 W 20.6 0.8 0.8
06:33 8.5 6.3 86 1005.8 9.2 W 20.6 0.8 0.8
06:34 8.5 6.3 86 1005.6 11.4 W 20.6 0.0 0.8
06:35 8.5 6.3 86 1005.7 14.5 NW 20.6 0.0 0.8
06:36 8.5 6.3 86 1005.7 9.8 W 20.6 0.0 0.8
06:37 8.5 6.3 86 1005.5 17.4 W 20.6 0.0 0.8
06:38 8.6 6.4 86 1005.8 17.4 W 17.4 0.0 0.8
06:39 8.6 6.4 86 1005.6 11.4 W 17.4 0.0 0.8
06:40 8.6 6.4 86 1005.5 13.6 W 17.4 0.0 0.8
06:41 8.6 6.4 86 1005.7 15.2 NW 17.4 0.0 0.8
06:42 8.6 6.4 86 1005.7 15.2 NW 17.4 0.0 0.8
06:43 8.7 6.5 86 1005.7 15.2 W 17.4 0.8 0.8
06:44 8.7 6.5 86 1005.6 17.4 SW 17.4 0.8 0.8
06:45 8.7 6.5 86 1005.5 17.4 N 17.4 0.8 0.8
06:46 8.7 6.5 86 1005.5 13.6 SW 17.4 0.8 0.8
06:47 8.7 6.5 86 1005.6 12.1 SW 17.4 0.8 0.8
06:48 8.7 6.5 86 1005.5 13.0 NW 17.4 0.8 0.8
06:49 8.7 6.5 86 1005.7 15.9 WSW 17.4 0.0 0.8
06:50 8.7 6.5 86 1005.5 15.9 W 17.4 0.0 0.8
06:51 8.7 6.5 86 1005.4 13.0 SW 17.4 0.0 0.8
06:52 8.7 6.5 86 1005.4 11.4 W 17.4 0.8 0.9
06:53 8.7 6.5 86 1005.3 12.1 N 17.4 0.8 0.9
06:54 8.7 6.5 86 1005.5 15.9 WNW 17.4 0.8 0.9
06:55 8.7 6.5 86 1005.4 15.9 NW 15.9 0.8 0.9
06:56 8.7 6.5 86 1005.2 13.0 W 15.9 0.8 0.9
06:57 8.7 6.5 86 1005.3 19.7 NW 19.7 0.8 0.9
06:58 8.7 6.5 86 1005.1 19.7 W 19.7 0.0 0.9
06:59 8.7 6.5 86 1005.3 14.5 W 19.7 0.0 0.9
07:00 8.7 6.5 86 1005.2 14.5 NW 19.7 0.0 0.9
07:01 8.7 6.5 86 1004.9 14.5 NW 19.7 0.0 0.9
07:02 8.7 6.5 86 1005.2 14.5 NW 19.7 0.0 0.9
07:03 8.7 6.5 86 1005.1 14.5 NW 19.7 0.0 0.9
07:04 8.7 6.5 86 1004.9 14.5 NW 19.7 0.0 0.9
07:05 8.7 6.5 86 1005.0 14.5 NW 19.7 0.0 0.9
07:06 8.6 6.4 86 1005.1 9.2 W 19.7 0.0 0.9
07:07 8.6 6.4 86 1004.9 13.0 W 19.7 0.0 0.9
07:08 8.7 6.5 86 1005.1 11.4 W 14.5 0.0 0.9
07:09 8.7 6.5 86 1005.0 17.4 W 17.4 0.0 0.9
07:10 8.7 6.5 86 1005.0 17.4 W 17.4 0.0 0.9
07:11 8.7 6.5 86 1005.0 19.7 NW 19.7 0.0 0.9
07:12 8.7 6.7 87 1004.7 15.9 SW 19.7 1.5 1.0
07:13 8.7 6.7 87 1005.0 15.9 NW 19.7 1.5 1.0
07:14 8.7 6.7 87 1004.9 10.7 W 19.7 1.5 1.0
07:15 8.7 6.7 87 1004.8 19.0 SSW 19.7 1.5 1.0
07:16 8.8 6.8 87 1004.7 19.0 W 19.7 0.8 1.0
07:17 8.8 6.8 87 1004.8 15.2 W 19.7 0.0 1.0
07:18 8.7 6.7 87 1004.8 13.0 SW 19.7 0.0 1.0
07:19 8.8 6.8 87 1004.5 12.1 W 19.7 0.0 1.0
07:20 8.8 6.8 87 1004.7 12.1 W 19.7 0.0 1.0
07:21 8.8 6.8 87 1004.5 12.1 NW 19.7 0.0 1.0
07:22 8.8 6.8 87 1004.5 12.1 W 19.0 0.0 1.0
07:23 8.8 6.8 87 1004.6 15.9 NW 19.0 0.0 1.0
07:24 8.8 6.8 87 1004.9 17.4 NW 19.0 0.0 1.0
07:25 8.8 6.8 87 1004.7 13.0 W 19.0 0.0 1.0
07:26 8.8 6.8 87 1004.7 12.1 NW 19.0 0.0 1.0
07:27 8.9 6.9 87 1004.5 11.4 W 17.4 0.0 1.0
07:28 8.9 6.9 87 1004.6 15.9 NW 17.4 0.0 1.0
07:29 8.9 6.9 87 1004.4 18.3 E 18.3 0.0 1.0
07:30 9.0 7.0 87 1004.6 18.3 NW 18.3 0.0 1.0
07:31 9.0 7.0 87 1004.7 15.9 W 18.3 0.0 1.0
07:32 9.0 7.0 87 1004.7 14.5 W 18.3 0.0 1.0
07:33 9.0 7.0 87 1004.7 12.1 W 18.3 0.0 1.0
07:34 9.0 7.0 87 1004.7 7.6 W 18.3 0.0 1.0
07:35 9.0 7.0 87 1004.5 9.8 W 18.3 0.0 1.0
07:36 9.0 7.0 87 1004.6 15.2 W 18.3 0.0 1.0
07:37 9.1 7.1 87 1004.6 15.9 W 19.0 0.0 1.0
07:38 9.1 7.1 87 1004.6 15.9 W 19.0 0.0 1.0
07:39 9.1 7.1 87 1004.4 12.1 WSW 19.0 0.0 1.0
07:40 9.1 7.1 87 1004.4 14.5 NW 19.0 0.0 1.0
07:41 9.1 6.9 86 1004.5 14.5 SW 19.0 0.0 1.0
07:42 9.1 6.9 86 1004.6 12.1 SW 19.0 0.0 1.0
07:43 9.1 6.9 86 1004.5 13.0 SW 19.0 0.0 1.0
07:44 9.1 6.9 86 1004.4 16.8 SW 19.0 0.0 1.0
07:45 9.1 6.9 86 1004.5 15.9 NW 19.0 0.0 1.0
07:46 9.1 6.9 86 1004.5 15.9 NW 19.0 0.0 1.0
07:47 9.2 7.0 86 1004.5 10.7 W 16.8 0.0 1.0
07:48 9.2 7.0 86 1004.4 9.2 NW 16.8 0.0 1.0
07:49 9.2 7.0 86 1004.3 20.6 W 20.6 0.0 1.0
07:50 9.2 7.0 86 1004.4 15.2 NW 20.6 0.0 1.0
07:51 9.2 7.0 86 1004.5 14.5 NW 20.6 0.0 1.0
07:52 9.2 7.0 86 1004.4 11.4 NE 20.6 0.0 1.0
07:53 9.2 7.0 86 1004.4 14.5 NW 20.6 0.0 1.0
07:54 9.2 7.0 86 1004.3 14.5 NW 20.6 0.0 1.0
07:55 9.3 7.1 86 1004.3 15.9 W 20.6 0.0 1.0
07:56 9.3 7.1 86 1004.0 16.8 NW 20.6 0.0 1.0
07:57 9.3 7.1 86 1004.3 16.8 NW 20.6 0.0 1.0
07:58 9.3 7.1 86 1004.1 14.5 W 20.6 0.0 1.0
07:59 9.3 7.1 86 1004.3 13.6 NW 20.6 0.0 1.0
08:00 9.3 7.1 86 1004.1 14.5 W 16.8 0.0 1.0
08:01 9.3 7.1 86 1004.0 16.8 NW 16.8 0.0 1.0
08:02 9.3 7.1 86 1004.2 16.8 W 16.8 0.0 1.0
08:03 9.3 7.1 86 1004.3 13.0 W 16.8 0.0 1.0
08:04 9.3 7.1 86 1004.2 15.9 NW 16.8 0.0 1.0
08:05 9.4 7.2 86 1004.2 15.2 NW 16.8 0.0 1.0
08:06 9.4 7.2 86 1004.1 22.1 SW 22.1 0.0 1.0
08:07 9.4 7.2 86 1004.2 22.1 W 22.1 0.0 1.0
08:08 9.4 7.2 86 1004.3 20.6 W 22.1 0.0 1.0
08:09 9.4 7.2 86 1004.1 20.6 W 22.1 0.0 1.0
08:10 9.4 7.2 86 1004.1 16.8 NW 22.1 0.0 1.0
08:11 9.4 7.2 86 1004.0 14.5 NW 22.1 0.0 1.0
08:12 9.4 7.2 86 1003.8 18.3 W 22.1 0.0 1.0
08:13 9.5 7.3 86 1003.8 15.2 NW 22.1 0.0 1.0
08:14 9.5 7.3 86 1004.1 19.7 W 22.1 0.0 1.0
08:15 9.5 7.3 86 1003.9 19.7 NNW 22.1 0.0 1.0
08:16 9.5 7.3 86 1004.1 13.6 SW 22.1 0.0 1.0
08:17 9.5 7.3 86 1004.1 14.5 S 22.1 0.0 1.0
08:18 9.5 7.1 85 1003.9 15.9 WNW 20.6 0.0 1.0
08:19 9.5 7.1 85 1004.0 12.1 W 19.7 0.0 1.0
08:20 9.5 7.1 85 1004.0 15.2 W 19.7 0.0 1.0
08:21 9.5 7.1 85 1004.0 15.2 NW 19.7 0.0 1.0
08:22 9.5 7.1 85 1003.9 13.0 W 19.7 0.0 1.0
08:23 9.5 7.1 85 1004.0 17.4 SW 19.7 0.0 1.0
08:24 9.5 7.1 85 1003.8 20.6 W 20.6 0.0 1.0
08:25 9.5 7.1 85 1003.7 16.8 NW 20.6 0.0 1.0
08:26 9.5 7.1 85 1003.9 13.6 W 20.6 0.0 1.0
08:27 9.5 7.1 85 1003.9 13.6 W 20.6 0.0 1.0
08:28 9.5 7.1 85 1003.7 19.7 NW 20.6 0.0 1.0
08:29 9.6 7.2 85 1003.5 17.4 SW 20.6 0.0 1.0
08:30 9.6 7.2 85 1003.8 12.1 W 20.6 0.0 1.0
08:31 9.6 7.2 85 1003.8 11.4 N 20.6 0.0 1.0
08:32 9.6 7.2 85 1004.0 14.5 NW 20.6 0.0 1.0
08:33 9.6 7.2 85 1003.8 23.5 N 25.9 0.0 1.0
08:34 9.6 7.2 85 1003.7 15.2 W 25.9 0.0 1.0
08:35 9.6 7.2 85 1003.7 15.9 W 25.9 0.0 1.0
08:36 9.6 7.2 85 1003.7 13.6 W 25.9 0.0 1.0
08:37 9.6 7.2 85 1003.7 13.0 NW 25.9 0.0 1.0
08:38 9.6 7.2 85 1003.8 22.8 NW 25.9 0.0 1.0
08:39 9.6 7.2 85 1003.7 13.0 W 25.9 0.0 1.0
08:40 9.6 7.2 85 1003.7 29.8 NW 29.8 0.0 1.0
08:41 9.6 7.2 85 1003.7 14.5 WNW 29.8 0.0 1.0
08:42 9.6 7.4 86 1003.9 15.9 W 29.8 0.0 1.0
08:43 9.6 7.4 86 1003.5 13.6 W 29.8 0.0 1.0
08:44 9.6 7.4 86 1003.5 18.3 WNW 29.8 0.0 1.0
08:45 9.6 7.4 86 1003.7 11.4 NW 29.8 0.0 1.0
08:46 9.6 7.4 86 1003.8 13.6 SW 29.8 0.0 1.0
08:47 9.6 7.4 86 1003.5 15.9 W 29.8 0.0 1.0
08:48 9.6 7.4 86 1003.5 9.8 W 29.8 0.0 1.0
08:49 9.6 7.4 86 1003.5 13.0 W 29.8 0.0 1.0
08:50 9.6 7.4 86 1003.5 13.0 W 29.8 0.0 1.0
08:51 9.6 7.4 86 1003.5 22.8 NW 26.6 0.0 1.0
08:52 9.6 7.4 86 1003.4 10.7 N 22.8 0.0 1.0
08:53 9.6 7.4 86 1003.6 12.1 NW 22.8 0.0 1.1
08:54 9.6 7.4 86 1003.3 13.6 NW 22.8 0.8 1.1
08:55 9.6 7.4 86 1003.4 14.5 W 22.8 0.8 1.1
08:56 9.6 7.4 86 1003.3 20.6 NW 22.8 0.8 1.1
08:57 9.6 7.4 86 1003.4 19.0 NW 22.8 0.8 1.1
08:58 9.6 7.4 86 1003.3 21.3 W 22.8 0.0 1.1
08:59 9.5 7.3 86 1003.4 18.3 W 22.8 0.0 1.1
09:00 9.5 7.3 86 1003.3 15.2 W 22.8 0.0 1.1
09:01 9.5 7.3 86 1003.1 15.2 W 22.8 0.0 1.1
09:02 9.5 7.3 86 1003.4 15.2 W 21.3 0.0 1.1
09:03 9.5 7.3 86 1003.2 15.2 W 21.3 0.0 1.1
09:04 9.5 7.3 86 1003.3 15.2 W 21.3 0.0 1.1
09:05 9.5 7.3 86 1003.1 15.2 W 21.3 0.0 1.1
09:06 9.5 7.4 87 1003.4 25.1 SW 25.1 0.0 1.1
09:07 9.5 7.4 87 1003.2 18.3 SW 25.1 0.0 1.1
09:08 9.5 7.4 87 1003.1 25.1 N 25.1 0.8 1.1
09:09 9.5 7.4 87 1003.3 16.8 SW 25.1 0.8 1.1
09:10 9.5 7.4 87 1003.2 15.2 W 25.1 0.8 1.1
09:11 9.5 7.4 87 1003.2 10.7 W 25.1 0.8 1.1
09:12 9.5 7.4 87 1002.9 19.0 W 25.1 0.8 1.1
09:13 9.5 7.4 87 1003.1 19.0 W 25.1 0.0 1.1
09:14 9.5 7.4 87 1003.3 19.0 W 25.1 0.0 1.1
09:15 9.5 7.4 87 1003.0 13.6 NW 25.1 0.0 1.1
09:16 9.5 7.4 87 1003.1 13.6 W 25.1 0.0 1.1
09:17 9.5 7.4 87 1003.1 15.9 NW 25.1 0.0 1.1
09:18 9.5 7.4 87 1003.1 16.8 WNW 25.1 0.0 1.1
09:19 9.5 7.4 87 1003.1 20.6 N 20.6 0.0 1.1
09:20 9.5 7.4 87 1003.1 17.4 WSW 20.6 0.0 1.1
09:21 9.5 7.4 87 1002.8 14.5 NW 20.6 0.0 1.1
09:22 9.5 7.4 87 1002.8 19.0 NW 20.6 0.0 1.1
09:23 9.6 7.5 87 1003.1 22.8 NW 22.8 0.0 1.1
09:24 9.6 7.5 87 1002.9 14.5 W 22.8 0.0 1.1
09:25 9.7 7.6 87 1003.1 18.3 W 22.8 0.0 1.1
09:26 9.7 7.8 88 1003.1 17.4 E 22.8 0.0 1.1
09:27 9.7 7.8 88 1002.9 25.9 NW 25.9 0.0 1.1
09:28 9.8 7.9 88 1003.0 20.6 W 25.9 0.0 1.1
09:29 9.8 7.9 88 1002.9 16.8 W 25.9 0.0 1.1
09:30 9.8 7.9 88 1003.1 22.1 NW 25.9 0.0 1.1
09:31 9.8 7.9 88 1003.2 17.4 W 25.9 0.0 1.1
09:32 9.8 7.9 88 1003.1 16.8 SW 25.9 0.0 1.1
09:33 9.8 7.9 88 1003.1 21.3 SW 25.9 0.0 1.1
09:34 9.8 7.9 88 1003.3 21.3 W 25.9 0.0 1.1
09:35 9.8 7.9 88 1003.0 15.9 NW 25.9 0.0 1.1
09:36 9.8 7.9 88 1003.0 15.9 NW 25.9 0.0 1.1
09:37 9.9 8.0 88 1003.0 17.4 W 25.9 0.0 1.1
09:38 9.9 8.0 88 1002.9 17.4 W 22.1 0.0 1.1
09:39 9.9 8.0 88 1002.9 15.2 W 22.1 0.0 1.1
09:40 9.9 8.0 88 1002.8 14.5 NW 22.1 0.0 1.1
09:41 9.9 8.0 88 1002.8 16.8 W 21.3 0.0 1.1
09:42 9.9 8.0 88 1003.0 16.8 W 21.3 0.0 1.1
09:43 9.9 8.0 88 1002.8 13.0 W 21.3 0.0 1.1
09:44 9.9 8.0 88 1003.0 18.3 NW 18.3 0.0 1.1
09:45 9.9 7.8 87 1002.7 22.1 W 22.1 0.0 1.1
09:46 9.9 7.8 87 1002.8 22.1 W 22.1 0.0 1.1
09:47 10.0 7.9 87 1002.6 17.4 NE 22.1 0.0 1.1
09:48 10.0 7.9 87 1002.6 19.0 NW 22.1 0.0 1.1
09:49 10.0 7.9 87 1002.5 15.9 W 22.1 0.0 1.1
09:50 10.0 7.9 87 1002.9 17.4 S 22.1 0.0 1.1
09:51 10.0 7.9 87 1002.5 17.4 S 22.1 0.0 1.1
09:52 10.0 7.9 87 1002.6 15.2 NW 22.1 0.0 1.1
09:53 10.1 8.0 87 1002.6 13.6 W 22.1 0.0 1.1
09:54 10.1 8.0 87 1002.5 12.1 NW 22.1 0.0 1.1
09:55 10.1 8.0 87 1002.3 12.1 NW 22.1 0.0 1.1
09:56 10.1 8.0 87 1002.5 12.1 NW 20.6 0.0 1.1
09:57 10.1 8.0 87 1002.5 15.9 NW 22.8 0.0 1.1
09:58 10.1 8.0 87 1002.2 20.6 NW 22.8 0.0 1.1
09:59 10.1 8.0 87 1002.5 13.0 SW 22.8 0.0 1.1
10:00 10.1 8.0 87 1002.3 13.0 SW 22.8 0.0 1.1
10:01 10.1 8.0 87 1002.5 13.0 SW 22.8 0.0 1.1
10:02 10.1 8.0 87 1002.3 13.0 SW 22.8 0.0 1.1
10:03 10.1 8.0 87 1002.3 13.0 SW 22.8 0.0 1.1
10:04 10.1 8.0 87 1002.3 13.0 SW 22.8 0.0 1.1
10:05 10.1 8.0 87 1002.7 13.0 SW 22.8 0.0 1.1
10:06 10.3 8.2 87 1002.4 25.1 W 25.1 0.0 1.1
10:07 10.3 8.2 87 1002.6 15.9 NW 25.1 0.0 1.1
10:08 10.2 8.1 87 1002.7 14.5 SW 25.1 0.0 1.1
10:09 10.2 8.1 87 1002.6 20.6 NW 25.1 0.0 1.1
10:10 10.1 8.0 87 1002.4 19.0 W 25.1 0.0 1.1
10:11 10.1 8.0 87 1002.3 19.0 W 25.1 0.0 1.1
10:12 10.1 8.0 87 1002.5 19.7 W 25.1 0.0 1.1
10:13 10.0 7.9 87 1002.4 16.8 W 25.1 0.0 1.1
10:14 10.0 7.9 87 1002.4 16.8 W 25.1 0.0 1.1
10:15 10.0 7.9 87 1002.4 15.9 W 25.1 0.0 1.1
10:16 10.0 7.9 87 1002.5 20.6 NW 25.1 0.0 1.1
10:17 10.0 8.1 88 1002.3 20.6 N 20.6 0.0 1.1
10:18 10.0 8.1 88 1002.2 30.4 NW 30.4 0.0 1.1
10:19 10.0 8.1 88 1002.3 17.4 W 30.4 0.0 1.1
10:20 10.0 8.1 88 1002.3 17.4 W 30.4 0.0 1.1
10:21 10.1 8.2 88 1002.4 15.2 W 30.4 0.0 1.1
10:22 10.1 8.4 89 1002.4 17.4 N 30.4 0.0 1.1
10:23 10.1 8.4 89 1002.1 17.4 NW 30.4 0.0 1.1
10:24 10.1 8.4 89 1002.1 17.4 NW 30.4 0.0 1.1
10:25 10.1 8.4 89 1002.3 22.8 W 30.4 0.0 1.1
10:26 10.1 8.4 89 1002.3 20.6 WSW 30.4 0.0 1.1
10:27 10.1 8.4 89 1002.1 20.6 WSW 30.4 0.0 1.1
10:28 10.1 8.4 89 1002.2 25.9 W 30.4 0.0 1.1
10:29 10.1 8.4 89 1002.1 25.9 W 25.9 0.0 1.1
10:30 10.2 8.5 89 1002.1 22.1 NW 25.9 0.0 1.1
10:31 10.2 8.5 89 1002.1 16.8 N 29.8 0.0 1.1
10:32 10.2 8.5 89 1002.1 16.8 N 29.8 0.0 1.1
10:33 10.2 8.3 88 1002.4 18.3 N 29.8 0.0 1.1
10:34 10.2 8.3 88 1002.2 22.1 W 29.8 0.0 1.1
10:35 10.2 8.3 88 1001.9 25.1 W 29.8 0.0 1.1
10:36 10.2 8.3 88 1002.0 25.1 W 29.8 0.0 1.1
10:37 10.2 8.3 88 1001.9 16.8 NW 29.8 0.0 1.1
10:38 10.2 8.3 88 1002.0 18.3 NW 29.8 0.0 1.1
10:39 10.2 8.1 87 1002.0 15.9 NW 29.8 0.0 1.1
10:40 10.2 8.1 87 1002.0 15.9 NW 29.8 0.0 1.1
10:41 10.3 8.2 87 1001.9 18.3 NW 25.1 0.0 1.1
10:42 10.3 8.2 87 1002.0 18.3 W 25.1 0.0 1.1
10:43 10.3 8.2 87 1002.0 13.6 N 25.1 0.0 1.1
10:44 10.3 8.2 87 1002.0 15.9 W 25.1 0.0 1.1
10:45 10.3 8.2 87 1002.3 15.9 W 25.1 0.0 1.1
10:46 10.4 8.3 87 1001.9 14.5 N 25.1 0.0 1.1
10:47 10.4 8.3 87 1001.8 16.8 W 25.1 0.0 1.1
10:48 10.5 8.4 87 1001.9 22.1 NW 22.1 0.0 1.1
10:49 10.5 8.4 87 1001.9 16.8 NW 25.1 0.0 1.1
10:50 10.5 8.4 87 1002.0 13.6 NW 25.1 0.0 1.1
10:51 10.5 8.4 87 1001.8 13.6 NW 25.1 0.0 1.1
10:52 10.6 8.5 87 1001.8 16.8 NW 25.1 0.0 1.1
10:53 10.6 8.4 86 1001.8 15.9 W 25.1 0.0 1.1
10:54 10.6 8.4 86 1001.8 17.4 SE 25.1 0.0 1.1
10:55 10.7 8.5 86 1001.8 17.4 NW 25.1 0.0 1.1
10:56 10.7 8.5 86 1001.7 15.9 NW 25.1 0.0 1.1
10:57 10.7 8.3 85 1001.9 13.6 W 25.1 0.0 1.1
10:58 10.7 8.3 85 1001.7 10.7 NW 25.1 0.0 1.1
10:59 10.7 8.3 85 1001.8 14.5 SW 25.1 0.0 1.1
11:00 10.7 8.3 85 1001.9 13.6 NNE 17.4 0.0 1.1
11:01 10.7 8.3 85 1001.7 13.6 NNE 17.4 0.0 1.1
11:02 10.7 8.3 85 1001.7 13.6 NNE 17.4 0.0 1.1
11:03 10.7 8.3 85 1001.7 13.6 NNE 17.4 0.0 1.1
11:04 10.7 8.3 85 1001.8 13.6 NNE 17.4 0.0 1.1
11:05 10.8 8.2 84 1001.5 20.6 NW 20.6 0.0 1.1
11:06 10.8 8.2 84 1001.6 18.3 E 20.6 0.0 1.1
11:07 10.9 8.3 84 1001.8 19.7 W 20.6 0.0 1.1
11:08 10.9 8.3 84 1001.7 22.1 NW 22.1 0.0 1.1
11:09 10.9 8.3 84 1001.9 22.8 N 22.8 0.0 1.1
11:10 10.9 8.3 84 1001.9 21.3 N 22.8 0.0 1.1
11:11 10.9 8.1 83 1002.1 21.3 NW 22.8 0.0 1.1
11:12 10.8 8.0 83 1002.0 14.5 E 22.8 0.0 1.1
11:13 10.6 7.7 82 1001.8 17.4 N 22.8 0.0 1.2
11:14 10.6 7.7 82 1001.8 17.4 N 22.8 0.8 1.2
11:15 10.4 7.5 82 1001.7 29.8 N 29.8 0.8 1.2
11:16 10.3 7.4 82 1001.8 20.6 W 29.8 0.8 1.2
11:17 10.1 7.2 82 1002.0 17.4 W 29.8 0.8 1.2
11:18 10.0 7.1 82 1001.9 17.4 NW 29.8 2.3 1.3
11:19 9.8 6.9 82 1001.7 17.4 N 29.8 3.0 1.4
11:20 9.8 6.9 82 1001.8 18.3 W 29.8 3.8 1.5
11:21 9.6 6.7 82 1001.7 9.8 NW 29.8 3.8 1.5
11:22 9.5 6.6 82 1001.7 11.4 NW 29.8 3.8 1.5
11:23 9.5 6.6 82 1001.8 10.7 W 29.8 2.3 1.5
11:24 9.5 6.6 82 1001.4 8.3 NW 29.8 0.8 1.5
11:25 9.4 6.7 83 1001.7 12.1 W 29.8 0.0 1.6
11:26 9.4 6.7 83 1001.8 13.6 N 18.3 0.8 1.6
11:27 9.4 6.7 83 1001.9 15.9 N 18.3 0.8 1.6
11:28 9.3 6.6 83 1001.9 13.6 N 18.3 1.5 1.6
11:29 9.3 6.7 84 1001.8 17.4 SW 18.3 1.5 1.7
11:30 9.3 6.7 84 1001.9 17.4 SW 18.3 2.3 1.7
11:31 9.2 6.6 84 1001.6 14.5 N 17.4 2.3 1.9
11:32 9.2 6.6 84 1001.7 13.6 N 17.4 3.8 1.9
11:33 9.2 6.6 84 1001.6 13.0 NW 17.4 3.0 1.9
11:34 9.2 6.8 85 1001.3 17.4 NW 17.4 3.0 2.0
11:35 9.1 6.7 85 1001.6 15.9 NW 17.4 3.0 2.0
11:36 9.1 6.7 85 1001.4 15.9 NW 17.4 0.8 2.0
11:37 9.1 6.7 85 1001.5 20.6 NW 20.6 0.8 2.0
11:38 9.1 6.7 85 1001.3 14.5 W 20.6 0.8 2.0
11:39 9.1 6.7 85 1001.3 13.0 NE 20.6 0.0 2.0
11:40 9.1 6.7 85 1001.4 13.6 W 20.6 0.0 2.0
11:41 9.1 6.9 86 1001.4 11.4 NW 20.6 0.0 2.0
11:42 9.2 7.0 86 1001.5 13.0 W 20.6 0.0 2.0
11:43 9.2 7.0 86 1001.4 15.2 NNW 20.6 0.0 2.0
11:44 9.2 7.0 86 1001.4 15.2 NNW 20.6 0.0 2.0
11:45 9.3 7.1 86 1001.3 13.0 NW 20.6 0.0 2.0
11:46 9.4 7.2 86 1001.1 26.6 NW 26.6 0.8 2.0
11:47 9.5 7.4 87 1001.2 15.2 NW 26.6 0.8 2.0
11:48 9.6 7.5 87 1001.2 15.2 NW 26.6 0.8 2.0
11:49 9.6 7.5 87 1001.4 16.8 SW 26.6 0.8 2.0
11:50 9.8 7.7 87 1001.2 14.5 NW 26.6 0.8 2.0
11:51 9.8 7.7 87 1001.0 17.4 NW 26.6 0.0 2.0
11:52 9.9 7.8 87 1001.0 22.8 W 26.6 0.0 2.0
11:53 9.9 7.8 87 1001.1 19.7 NW 26.6 0.0 2.0
11:54 9.9 7.8 87 1001.2 18.3 N 26.6 0.0 2.0
11:55 9.9 7.8 87 1001.1 19.7 NW 26.6 0.0 2.0
11:56 9.9 7.7 86 1001.0 19.7 NW 26.6 0.0 2.0
11:57 10.0 7.8 86 1001.0 18.3 N 22.8 0.0 2.0
11:58 10.0 7.8 86 1001.0 18.3 N 22.8 0.0 2.0
11:59 10.0 7.8 86 1001.0 14.5 N 22.8 0.0 2.0
12:00 10.1 7.9 86 1001.0 15.9 NE 22.8 0.0 2.0
12:01 10.1 7.9 86 1001.0 15.9 NE 22.8 0.0 2.0
12:02 10.1 7.9 86 1001.0 15.9 NE 22.8 0.0 2.0
12:03 10.5 8.4 87 1000.9 22.8 W 22.8 0.0 2.0
12:04 10.6 8.5 87 1000.9 19.7 NNE 22.8 0.0 2.0
12:05 10.7 8.5 86 1000.7 25.9 N 25.9 0.0 2.0
12:06 10.7 8.5 86 1000.7 25.9 N 25.9 0.0 2.0
12:07 10.8 8.4 85 1000.9 20.6 NW 25.9 0.0 2.0
12:08 10.8 8.2 84 1000.8 19.0 SE 25.9 0.0 2.0
12:09 10.7 7.9 83 1000.8 19.7 NW 25.9 0.0 2.0
12:10 10.7 7.8 82 1000.9 12.1 NW 25.9 0.0 2.0
12:11 10.8 7.9 82 1000.8 25.1 NW 25.9 0.0 2.0
12:12 10.7 7.8 82 1000.7 25.1 NE 25.9 0.0 2.0
12:13 10.7 7.6 81 1000.9 22.1 WNW 25.9 0.0 2.0
12:14 10.6 7.5 81 1001.0 22.1 W 25.9 0.0 2.0
12:15 10.5 7.2 80 1000.9 19.0 NW 25.9 0.0 2.0
12:16 10.4 7.1 80 1001.0 25.9 NNE 25.9 0.0 2.0
12:17 10.3 7.0 80 1001.1 25.9 N 25.9 0.0 2.0
12:18 10.2 6.7 79 1001.0 16.8 N 25.9 0.0 2.0
12:19 10.1 6.6 79 1000.8 22.1 NW 25.9 0.0 2.0
12:20 10.0 6.5 79 1000.8 18.3 NW 25.9 0.0 2.0
12:21 9.9 6.2 78 1001.0 18.3 NW 25.9 0.0 2.0
12:22 9.9 6.1 77 1000.5 18.3 N 25.9 0.0 2.0
12:23 9.9 6.2 78 1000.5 20.6 WNW 25.9 0.0 2.0
12:24 9.9 6.2 78 1000.9 19.0 NW 25.9 0.0 2.0
12:25 9.9 6.2 78 1000.7 15.9 NW 25.9 0.0 2.0
12:26 9.9 6.2 78 1000.9 15.9 NW 25.9 0.0 2.0
12:27 9.9 6.2 78 1000.8 25.1 NW 25.9 0.0 2.0
12:28 10.0 6.5 79 1000.7 22.8 NW 25.1 0.0 2.0
12:29 10.0 6.5 79 1001.0 16.8 NW 25.1 0.0 2.0
12:30 10.0 6.5 79 1001.0 14.5 SW 25.1 0.0 2.0
12:31 9.9 6.4 79 1001.0 25.1 NW 25.1 0.0 2.0
12:32 9.9 6.4 79 1000.7 22.8 N 25.1 0.0 2.0
12:33 9.8 6.3 79 1000.9 19.0 NW 25.1 0.0 2.0
12:34 9.7 6.2 79 1000.9 15.9 WNW 25.1 0.0 2.0
12:35 9.6 6.1 79 1000.9 15.9 N 25.1 0.0 2.0
12:36 9.5 6.0 79 1000.8 19.7 N 25.1 0.0 2.0
12:37 9.5 6.0 79 1000.9 16.8 W 25.1 0.0 2.0
12:38 9.5 6.0 79 1000.8 15.9 NW 25.1 0.0 2.0
12:39 9.5 6.0 79 1000.7 13.6 WNW 25.1 0.0 2.0
12:40 9.4 5.9 79 1000.8 13.6 N 25.1 0.0 2.0
12:41 9.4 5.9 79 1000.5 13.0 SW 25.1 0.0 2.0
12:42 9.4 5.9 79 1000.5 13.0 SW 22.8 0.0 2.0
12:43 9.3 5.8 79 1000.6 18.3 NW 27.3 0.0 2.0
12:44 9.3 5.8 79 1000.6 19.0 NW 27.3 0.0 2.0
12:45 9.3 5.8 79 1000.9 19.0 NW 27.3 0.0 2.0
12:46 9.3 5.7 78 1000.7 20.6 NE 27.3 0.0 2.0
12:47 9.2 5.6 78 1000.6 18.3 NW 27.3 0.0 2.0
12:48 9.2 5.6 78 1000.7 16.8 NW 27.3 0.0 2.0
12:49 9.3 5.7 78 1000.6 19.0 NE 27.3 0.0 2.0
12:50 9.3 5.7 78 1000.7 17.4 N 27.3 0.0 2.0
12:51 9.3 5.7 78 1000.8 19.0 NW 27.3 0.0 2.0
12:52 9.4 5.9 79 1000.9 19.0 W 27.3 0.0 2.0
12:53 9.4 5.9 79 1000.9 16.8 NW 20.6 0.0 2.0
12:54 9.3 5.8 79 1000.9 13.6 N 20.6 0.0 2.0
12:55 9.3 5.8 79 1000.8 19.0 W 20.6 0.0 2.0
12:56 9.3 5.8 79 1000.6 11.4 W 20.6 0.0 2.0
12:57 9.3 5.8 79 1000.7 17.4 W 20.6 0.0 2.0
12:58 9.3 5.8 79 1000.6 19.0 W 20.6 0.0 2.0
12:59 9.2 5.8 79 1000.6 15.2 NW 20.6 0.0 2.0
13:00 9.2 5.8 79 1000.6 15.2 NW 20.6 0.0 2.0
13:01 9.2 5.8 79 1000.6 15.2 NW 20.6 0.0 2.0
13:02 9.2 5.8 79 1000.6 15.2 NW 20.6 0.0 2.0
13:03 9.2 5.8 79 1000.5 15.2 NW 19.0 0.0 2.0
13:05 9.2 5.8 79 1000.5 15.2 NW 19.0 0.0 2.0
13:06 9.3 5.5 77 1000.7 19.0 NW 24.4 0.0 2.0
13:07 9.4 5.6 77 1000.4 15.9 NW 24.4 0.0 2.0
13:08 9.5 5.7 77 1000.5 19.0 NW 24.4 0.0 2.0
13:09 9.7 5.9 77 1000.4 15.9 W 24.4 0.0 2.0
13:10 9.8 6.0 77 1000.5 13.6 W 24.4 0.0 2.0
13:11 9.9 6.1 77 1000.5 15.9 NW 24.4 0.0 2.0
13:12 9.9 6.1 77 1000.3 18.3 W 24.4 0.0 2.0
13:13 10.0 6.0 76 1000.5 16.8 NW 24.4 0.0 2.0
13:14 10.0 6.0 76 1000.4 16.8 NW 24.4 0.0 2.0
13:15 10.1 5.9 75 1000.3 20.6 NW 24.4 0.0 2.0
13:16 10.2 5.8 74 1000.4 20.6 NW 20.6 0.0 2.0
13:17 10.2 5.8 74 1000.4 21.3 WNW 21.3 0.0 2.0
13:18 10.2 5.8 74 1000.1 21.3 WNW 21.3 0.0 2.0
13:19 10.3 5.5 72 1000.2 19.0 N 21.3 0.0 2.0
13:20 10.3 5.5 72 1000.1 19.0 NW 21.3 0.0 2.0
13:21 10.3 5.3 71 1000.3 18.3 W 21.3 0.0 2.0
13:22 10.3 5.3 71 1000.1 16.8 NW 21.3 0.0 2.0
13:23 10.3 5.3 71 1000.3 13.0 W 21.3 0.0 2.0
13:24 10.3 5.3 71 1000.3 17.4 S 21.3 0.0 2.0
13:25 10.3 5.5 72 1000.3 14.5 NW 21.3 0.0 2.0
13:26 10.4 5.6 72 1000.3 18.3 NW 21.3 0.0 2.0
13:27 10.4 5.6 72 1000.0 15.9 W 21.3 0.0 2.0
13:28 10.4 5.6 72 1000.2 19.0 WNW 21.3 0.0 2.0
13:29 10.4 5.6 72 1000.1 19.7 NNW 19.7 0.0 2.0
13:30 10.4 5.6 72 1000.1 19.7 NNW 19.7 0.0 2.0
13:31 10.4 5.6 72 1000.2 15.2 W 19.7 0.0 2.0
13:32 10.5 5.7 72 999.9 13.6 N 19.7 0.0 2.0
13:33 10.5 5.7 72 1000.1 19.0 N 19.7 0.0 2.0
13:34 10.5 5.7 72 1000.0 19.0 N 19.7 0.0 2.0
13:35 10.6 5.6 71 999.9 19.0 NW 19.7 0.0 2.0
13:36 10.6 5.6 71 1000.1 19.0 N 19.7 0.0 2.0
13:37 10.7 5.7 71 1000.1 19.0 WNW 19.7 0.0 2.0
13:38 10.7 5.7 71 1000.1 18.3 NW 19.7 0.0 2.0
13:39 10.7 5.7 71 999.9 13.6 W 19.7 0.0 2.0
13:40 10.7 5.7 71 1000.0 17.4 W 19.7 0.0 2.0
13:41 10.7 5.7 71 1000.1 21.3 NNW 21.3 0.0 2.0
13:42 10.7 5.5 70 999.8 21.3 WNW 21.3 0.0 2.0
13:43 10.7 5.5 70 1000.0 19.7 NW 21.3 0.0 2.0
13:44 10.7 5.5 70 999.8 24.4 W 24.4 0.0 2.0
13:45 10.7 5.7 71 999.9 24.4 N 24.4 0.0 2.0
13:46 10.7 5.7 71 999.6 22.1 W 24.4 0.0 2.0
13:47 10.7 5.5 70 999.8 30.4 NW 30.4 0.0 2.0
13:48 10.7 5.5 70 999.7 21.3 NW 30.4 0.0 2.0
13:49 10.7 5.5 70 999.6 21.3 W 30.4 0.0 2.0
13:50 10.7 5.2 69 999.7 19.7 NW 30.4 0.0 2.0
13:51 10.7 5.2 69 999.7 15.2 NW 30.4 0.0 2.0
13:52 10.7 5.2 69 999.6 19.7 NW 30.4 0.0 2.0
13:53 10.7 5.2 69 999.8 18.3 NW 30.4 0.0 2.0
13:54 10.7 5.2 69 999.7 20.6 NW 30.4 0.0 2.0
13:55 10.6 5.2 69 999.5 14.5 N 30.4 0.0 2.0
13:56 10.6 5.2 69 999.7 14.5 N 30.4 0.0 2.0
13:57 10.6 5.2 69 999.9 19.0 NW 30.4 0.0 2.0
13:58 10.5 5.1 69 999.8 23.5 NW 23.5 0.0 2.0
13:59 10.5 5.3 70 999.8 22.1 NW 23.5 0.0 2.0
14:00 10.5 5.3 70 999.8 22.1 NW 23.5 0.0 2.0
14:01 10.5 5.3 70 999.7 22.1 NW 23.5 0.0 2.0
14:02 10.5 5.3 70 999.8 22.1 NW 23.5 0.0 2.0
14:03 10.5 5.1 69 999.7 20.6 N 26.6 0.0 2.0
14:04 10.5 5.1 69 999.9 20.6 NW 26.6 0.0 2.0
14:05 10.5 5.1 69 999.6 20.6 S 26.6 0.0 2.0
14:06 10.4 5.0 69 999.4 13.6 NW 26.6 0.0 2.0
14:07 10.4 5.0 69 999.6 20.6 NW 26.6 0.0 2.0
14:08 10.5 5.1 69 999.4 23.5 E 26.6 0.0 2.0
14:09 10.5 5.1 69 999.7 18.3 SW 26.6 0.0 2.0
14:10 10.6 5.2 69 999.6 17.4 NW 26.6 0.0 2.0
14:11 10.6 5.2 69 999.6 20.6 W 26.6 0.0 2.0
14:12 10.6 5.2 69 999.7 20.6 N 26.6 0.0 2.0
14:13 10.6 4.9 68 999.6 22.1 W 23.5 0.0 2.0
14:14 10.6 4.9 68 999.6 22.1 W 23.5 0.0 2.0
14:15 10.5 4.6 67 999.6 28.2 W 28.2 0.0 2.0
14:16 10.4 4.3 66 999.7 18.3 W 28.2 0.0 2.0
14:17 10.4 4.1 65 999.7 21.3 N 28.2 0.0 2.0
14:18 10.3 4.0 65 999.9 21.3 NW 28.2 0.0 2.0
14:19 10.3 4.0 65 999.7 24.4 NW 28.2 0.0 2.0
14:20 10.2 3.9 65 999.7 19.7 NW 28.2 0.0 2.0
14:21 10.2 3.9 65 999.9 21.3 NW 28.2 0.0 2.0
14:22 10.2 3.7 64 999.3 22.1 W 28.2 0.0 2.0
14:23 10.2 3.7 64 999.7 31.1 NW 31.1 0.0 2.0
14:24 10.1 3.4 63 999.5 25.9 NW 31.1 0.0 2.0
14:25 10.1 3.4 63 999.5 19.7 NW 31.1 0.0 2.0
14:26 10.0 3.3 63 999.6 19.7 WNW 31.1 0.0 2.0
14:27 10.0 3.3 63 999.6 19.0 W 31.1 0.0 2.0
14:28 10.0 3.1 62 999.6 18.3 N 31.1 0.0 2.0
14:29 9.9 3.0 62 999.8 19.7 SW 31.1 0.0 2.0
14:30 9.9 3.0 62 999.6 20.6 NW 31.1 0.0 2.0
14:31 9.8 2.9 62 999.6 16.8 SW 31.1 0.0 2.0
14:32 9.8 3.1 63 999.6 22.1 N 31.1 0.0 2.0
14:33 9.8 3.1 63 999.6 22.1 NW 31.1 0.0 2.0
14:34 9.7 3.0 63 999.6 21.3 W 25.9 0.0 2.0
14:35 9.7 3.0 63 999.5 21.3 NW 25.9 0.0 2.0
14:36 9.6 2.9 63 999.5 19.7 E 22.1 0.0 2.0
14:37 9.6 2.9 63 999.6 17.4 SW 22.1 0.0 2.0
14:38 9.5 3.0 64 999.2 17.4 N 22.1 0.0 2.0
14:39 9.5 3.0 64 999.4 20.6 W 22.1 0.0 2.0
14:40 9.5 3.0 64 999.4 19.0 W 22.1 0.0 2.0
14:41 9.6 3.3 65 999.5 16.8 NW 22.1 0.0 2.0
14:42 9.6 3.3 65 999.3 16.8 NW 22.1 0.0 2.0
14:43 9.6 3.3 65 999.4 25.1 NW 25.1 0.0 2.0
14:44 9.6 3.3 65 999.1 25.1 NW 25.1 0.0 2.0
14:45 9.6 3.3 65 999.4 17.4 W 25.1 0.0 2.0
14:46 9.5 3.3 65 999.4 13.0 N 25.1 0.0 2.0
14:47 9.5 3.0 64 999.5 17.4 W 25.1 0.0 2.0
14:48 9.5 3.0 64 999.4 15.9 NW 25.1 0.0 2.0
14:49 9.5 3.0 64 999.2 23.5 NW 25.1 0.0 2.0
14:50 9.5 3.3 65 999.4 18.3 NW 25.1 0.0 2.0
14:51 9.4 3.2 65 999.5 22.1 NW 25.1 0.0 2.0
14:52 9.4 3.2 65 999.4 17.4 NW 25.1 0.0 2.0
14:53 9.4 3.2 65 999.4 22.8 W 25.1 0.0 2.0
14:54 9.4 3.2 65 999.6 19.7 N 23.5 0.0 2.0
14:55 9.4 3.2 65 999.3 22.8 WNW 23.5 0.0 2.0
14:56 9.4 2.9 64 999.3 22.1 N 23.5 0.0 2.0
14:57 9.4 2.9 64 999.3 27.3 NW 27.3 0.0 2.0
14:58 9.4 2.9 64 999.3 27.3 NW 27.3 0.0 2.0
14:59 9.4 2.9 64 999.2 23.5 NW 27.3 0.0 2.0
15:00 9.4 2.9 64 999.6 19.7 E 27.3 0.0 2.0
15:01 9.4 2.9 64 999.5 19.7 E 27.3 0.0 2.0
15:02 9.4 2.9 64 999.2 19.7 E 27.3 0.0 2.0
15:03 9.3 2.6 63 999.2 20.6 NW 27.3 0.0 2.0
15:04 9.3 2.6 63 999.3 22.8 W 27.3 0.0 2.0
15:05 9.3 2.6 63 999.1 22.1 NW 27.3 0.0 2.0
15:06 9.3 2.6 63 999.3 23.5 NW 27.3 0.0 2.0
15:07 9.4 2.7 63 999.2 19.0 NW 27.3 0.0 2.0
15:08 9.4 2.9 64 999.4 25.9 NW 25.9 0.0 2.0
15:09 9.4 2.9 64 999.4 27.3 N 27.3 0.0 2.0
15:10 9.4 2.9 64 999.2 22.8 NW 27.3 0.0 2.0
15:11 9.4 2.9 64 999.1 22.8 NW 27.3 0.0 2.0
15:12 9.4 2.7 63 998.7 21.3 N 27.3 0.0 2.0
15:13 9.4 2.7 63 999.2 19.7 NW 27.3 0.0 2.0
15:14 9.4 2.5 62 999.0 20.6 NW 27.3 0.0 2.0
15:15 9.4 2.5 62 999.1 25.1 NW 27.3 0.0 2.0
15:16 9.4 2.3 61 999.3 25.1 SW 27.3 0.0 2.0
15:17 9.3 2.2 61 999.2 19.7 WNW 27.3 0.0 2.0
15:18 9.3 2.2 61 999.2 19.7 WNW 27.3 0.0 2.0
15:19 9.3 2.2 61 999.1 17.4 NW 27.3 0.0 2.0
15:20 9.3 2.4 62 999.1 15.9 NW 25.1 0.0 2.0
15:21 9.3 2.4 62 999.4 16.8 NW 25.1 0.0 2.0
15:22 9.3 2.4 62 999.3 19.7 N 25.1 0.0 2.0
15:23 9.3 2.4 62 999.4 19.0 NW 25.1 0.0 2.0
15:24 9.2 2.3 62 999.4 19.7 NW 25.1 0.0 2.0
15:25 9.2 2.5 63 999.2 22.1 SE 25.1 0.0 2.0
15:26 9.2 2.5 63 999.3 20.6 NW 22.1 0.0 2.0
15:27 9.2 2.5 63 999.2 15.9 N 22.1 0.0 2.0
15:28 9.2 2.5 63 999.3 18.3 NW 22.1 0.0 2.0
15:29 9.2 2.5 63 999.5 18.3 NW 22.1 0.0 2.0
15:30 9.2 2.7 64 999.4 13.6 NW 22.1 0.0 2.0
15:31 9.2 2.7 64 999.2 17.4 NW 22.1 0.0 2.0
15:32 9.2 2.7 64 999.4 22.1 SE 22.1 0.0 2.0
15:33 9.2 2.7 64 999.3 22.1 NW 22.1 0.0 2.0
15:34 9.2 3.0 65 999.3 13.6 N 22.1 0.0 2.0
15:35 9.2 3.0 65 999.3 16.8 W 24.4 0.0 2.0
15:36 9.2 3.0 65 999.3 13.6 SW 24.4 0.0 2.0
15:37 9.2 3.0 65 999.3 23.5 WNW 24.4 0.0 2.0
15:38 9.2 3.0 65 999.4 22.8 NW 24.4 0.0 2.0
15:39 9.1 2.9 65 999.4 18.3 NW 24.4 0.0 2.0
15:40 9.1 2.9 65 999.0 22.8 NW 24.4 0.0 2.0
15:41 9.1 2.9 65 999.1 21.3 W 24.4 0.0 2.0
15:42 9.1 2.9 65 999.5 21.3 NW 24.4 0.0 2.0
15:43 9.0 2.8 65 999.5 27.3 NW 27.3 0.0 2.0
15:44 9.0 2.8 65 999.5 27.3 SW 27.3 0.0 2.0
15:45 9.0 3.0 66 999.5 19.0 W 27.3 0.0 2.0
15:46 8.9 3.1 67 999.6 15.2 N 27.3 0.0 2.0
15:47 8.9 3.1 67 999.2 25.1 NW 27.3 0.0 2.0
15:48 8.9 3.3 68 999.4 25.1 NE 27.3 0.0 2.0
15:49 8.8 3.2 68 999.4 19.0 SW 27.3 0.0 2.0
15:50 8.8 3.2 68 999.5 19.0 W 27.3 0.0 2.0
15:51 8.7 3.3 69 999.4 18.3 NW 27.3 0.0 2.0
15:52 8.7 3.3 69 999.6 13.0 SW 27.3 0.0 2.0
15:53 8.6 3.2 69 999.2 15.2 SE 27.3 0.0 2.0
15:54 8.6 3.2 69 999.3 15.2 N 27.3 0.0 2.1
15:55 8.6 3.4 70 999.1 13.0 NE 25.1 1.5 2.1
15:56 8.5 3.3 70 999.2 16.8 NW 25.1 1.5 2.1
15:57 8.4 3.2 70 999.2 15.9 NW 25.1 1.5 2.1
15:58 8.4 3.4 71 999.0 15.9 NW 19.0 1.5 2.3
15:59 8.4 3.4 71 999.1 12.1 NW 19.0 3.0 2.3
16:00 8.3 3.4 71 999.0 17.4 NW 18.3 3.0 2.4
16:01 8.3 3.4 71 999.1 17.4 NW 18.3 3.0 2.4
16:02 8.2 3.5 72 999.3 13.0 NW 17.4 3.0 2.4
16:03 8.2 3.5 72 999.2 6.0 N 17.4 3.0 2.4
16:04 8.1 3.4 72 999.3 9.8 N 17.4 0.8 2.4
16:05 8.1 3.6 73 999.1 17.4 NW 17.4 0.8 2.4
16:06 8.1 3.6 73 999.1 19.7 NW 19.7 0.0 2.4
16:07 8.0 3.7 74 999.2 13.6 NW 19.7 0.0 2.4
16:08 8.0 3.7 74 999.2 12.1 NW 19.7 0.0 2.4
16:09 8.0 3.7 74 999.2 17.4 NE 19.7 0.0 2.4
16:10 8.0 3.7 74 999.3 15.2 N 19.7 0.0 2.4
16:11 8.0 3.7 74 999.1 25.9 N 25.9 0.0 2.4
16:12 8.0 3.7 74 999.2 20.6 N 25.9 0.0 2.4
16:13 8.0 3.7 74 999.2 15.9 SW 25.9 0.0 2.4
16:14 8.0 3.5 73 999.4 19.7 W 25.9 0.0 2.4
16:15 8.0 3.5 73 999.1 19.7 W 25.9 0.0 2.4
16:16 8.0 3.5 73 999.3 19.7 NW 25.9 0.0 2.4
16:17 8.0 3.5 73 999.3 22.1 W 25.9 0.0 2.4
16:18 8.0 3.5 73 999.1 22.1 W 25.9 0.0 2.4
16:19 8.0 3.5 73 999.1 20.6 W 25.9 0.0 2.4
16:20 8.0 3.5 73 999.1 18.3 NW 25.9 0.0 2.4
16:21 8.0 3.5 73 998.9 16.8 W 25.9 0.0 2.4
16:22 8.0 3.5 73 999.1 19.0 NW 22.1 0.0 2.4
16:23 8.0 3.3 72 999.1 12.1 NW 22.1 0.0 2.4
16:24 8.0 3.3 72 999.1 18.3 W 22.1 0.0 2.4
16:25 7.9 3.2 72 999.3 16.8 NE 22.1 0.0 2.4
16:26 7.9 3.2 72 999.3 13.6 S 22.1 0.0 2.4
16:27 7.9 3.4 73 999.2 15.9 N 22.1 0.0 2.4
16:28 7.9 3.4 73 999.4 19.0 NW 22.1 0.0 2.4
16:29 7.9 3.4 73 999.1 19.0 NW 20.6 0.0 2.4
16:30 7.9 3.4 73 999.3 19.0 NW 19.7 0.0 2.4
16:31 7.9 3.4 73 999.5 25.1 NW 25.1 0.0 2.4
16:32 7.8 3.3 73 999.3 18.3 SSW 25.1 0.0 2.4
16:33 7.7 3.0 72 999.2 24.4 W 25.1 0.0 2.4
16:34 7.7 3.0 72 999.2 24.4 W 25.1 0.0 2.4
16:35 7.7 2.8 71 999.3 15.9 NW 25.1 0.0 2.4
16:36 7.6 2.7 71 999.2 14.5 WNW 25.1 0.0 2.4
16:37 7.6 2.7 71 999.2 14.5 WNW 25.1 0.0 2.4
16:38 7.6 2.7 71 999.5 19.0 N 25.1 0.0 2.4
16:39 7.5 2.6 71 999.0 25.9 N 25.9 0.8 2.5
16:40 7.5 2.6 71 999.3 14.5 NW 25.9 0.8 2.5
16:41 7.5 2.6 71 999.3 14.5 N 25.9 0.8 2.5
16:42 7.5 2.6 71 999.2 15.2 NW 25.9 0.8 2.5
16:43 7.5 2.6 71 999.4 15.2 NW 25.9 0.8 2.5
16:44 7.5 2.6 71 999.3 15.2 NW 25.9 0.0 2.5
16:45 7.4 3.4 76 999.4 17.4 N 25.9 0.0 2.5
16:46 7.4 3.6 77 999.4 13.0 NW 25.9 0.0 2.5
16:47 7.4 3.6 77 999.4 13.0 NW 25.9 0.0 2.5
16:48 7.4 3.6 77 999.3 15.2 NW 25.9 0.0 2.5
16:49 7.4 3.6 77 999.5 15.2 NW 25.9 0.0 2.5
16:50 7.4 3.6 77 999.3 15.2 NW 17.4 0.0 2.5
16:51 7.4 3.6 77 999.5 15.9 S 17.4 0.0 2.5
16:52 7.4 3.4 76 999.2 18.3 N 18.3 0.0 2.5
16:53 7.4 3.3 75 999.3 19.0 W 19.0 0.0 2.5
16:54 7.4 3.1 74 999.4 16.8 NE 19.0 0.0 2.5
16:55 7.4 2.9 73 999.2 16.8 W 19.0 0.0 2.5
16:56 7.4 2.9 73 999.2 20.6 NW 20.6 0.0 2.5
16:57 7.4 2.7 72 999.3 17.4 W 20.6 0.0 2.5
16:58 7.4 2.7 72 999.2 15.9 NW 20.6 0.0 2.5
16:59 7.4 2.7 72 999.3 15.9 W 20.6 0.0 2.5
17:00 7.4 2.7 72 999.4 12.1 NW 20.6 0.0 2.5
17:01 7.4 2.7 72 999.4 12.1 NW 20.6 0.0 2.5
17:02 7.4 2.7 72 999.4 12.1 NW 20.6 0.0 2.5
17:03 7.4 2.7 72 999.3 12.1 NW 20.6 0.0 2.5
17:04 7.4 2.7 72 999.3 12.1 NW 20.6 0.0 2.5
17:05 7.4 2.7 72 999.4 12.1 NW 20.6 0.0 2.5
17:06 7.4 2.7 72 999.4 12.1 NW 20.6 0.0 2.5
17:07 7.4 3.4 76 999.3 15.2 NW 20.6 0.0 2.5
17:08 7.4 3.4 76 998.9 15.2 NW 15.9 0.0 2.5
17:09 7.4 3.4 76 999.3 19.7 N 19.7 0.0 2.5
17:10 7.4 3.4 76 999.4 13.6 NW 19.7 0.0 2.5
17:11 7.5 2.8 72 999.3 14.5 N 19.7 0.0 2.5
17:12 7.5 2.8 72 999.4 14.5 N 19.7 0.0 2.5
17:13 7.5 2.8 72 999.4 19.0 SW 19.7 0.0 2.5
17:14 7.6 2.9 72 999.4 21.3 W 21.3 0.0 2.5
17:15 7.6 2.9 72 999.4 17.4 N 21.3 0.0 2.5
17:16 7.6 2.9 72 999.2 13.0 N 21.3 0.0 2.5
17:17 7.6 3.1 73 999.2 16.8 NW 21.3 0.0 2.5
17:18 7.6 3.1 73 999.2 19.0 NW 21.3 0.0 2.5
17:19 7.7 3.2 73 999.1 17.4 W 21.3 0.0 2.5
17:20 7.7 3.2 73 999.1 17.4 NW 21.3 0.0 2.5
17:21 7.7 3.0 72 999.3 20.6 W 21.3 0.0 2.5
17:22 7.7 3.0 72 999.2 21.3 W 21.3 0.0 2.5
17:23 7.7 3.0 72 999.4 21.3 E 21.3 0.0 2.5
17:24 7.7 3.0 72 999.2 19.7 N 21.3 0.0 2.5
17:25 7.7 2.8 71 999.2 18.3 E 21.3 0.0 2.5
17:26 7.8 2.9 71 999.0 15.2 W 21.3 0.0 2.5
17:27 7.8 2.9 71 999.1 14.5 W 21.3 0.0 2.5
17:28 7.8 2.9 71 999.3 16.8 NW 21.3 0.0 2.5
17:29 7.8 2.9 71 999.3 22.1 NW 22.1 0.0 2.5
17:30 7.8 2.9 71 999.3 22.1 NW 22.1 0.0 2.5
17:31 7.8 2.9 71 999.2 18.3 NW 22.1 0.0 2.5
17:32 7.8 2.9 71 999.3 19.7 N 22.1 0.0 2.5
17:33 7.8 2.9 71 999.4 20.6 SW 22.1 0.0 2.5
17:34 7.8 2.9 71 999.2 25.1 NW 25.1 0.0 2.5
17:35 7.8 2.9 71 999.4 26.6 NE 26.6 0.0 2.5
17:36 7.8 2.9 71 999.5 17.4 W 26.6 0.0 2.5
17:37 7.7 2.8 71 999.2 21.3 NW 26.6 0.0 2.5
17:38 7.7 2.8 71 999.4 16.8 NW 26.6 0.0 2.5
17:39 7.7 2.8 71 999.3 16.8 NW 26.6 0.0 2.5
17:40 7.6 2.7 71 999.4 17.4 W 26.6 0.0 2.5
17:41 7.6 2.7 71 999.3 17.4 SW 26.6 0.0 2.5
17:42 7.6 2.7 71 999.3 19.0 NW 26.6 0.0 2.5
17:43 7.5 2.6 71 999.4 19.7 NW 26.6 0.0 2.5
17:44 7.5 2.6 71 999.3 18.3 WNW 26.6 0.0 2.5
17:45 7.5 2.6 71 999.3 21.3 NW 26.6 0.0 2.5
17:46 7.5 2.6 71 999.4 20.6 W 21.3 0.0 2.5
17:47 7.5 2.6 71 999.4 15.2 N 21.3 0.0 2.5
17:48 7.5 2.6 71 999.0 17.4 W 21.3 0.0 2.5
17:50 7.4 3.3 75 999.5 23.5 SW 23.5 0.0 2.5
17:51 7.4 3.3 75 999.4 15.9 N 23.5 0.0 2.5
17:52 7.4 3.3 75 999.3 15.2 NW 23.5 0.0 2.5
17:53 7.4 3.3 75 999.5 19.7 NW 23.5 0.0 2.5
17:54 7.4 3.3 75 999.5 15.9 NW 23.5 0.0 2.5
17:55 7.4 3.3 75 999.6 15.2 NW 23.5 0.0 2.5
17:56 7.4 3.3 75 999.4 16.8 W 23.5 0.0 2.5
17:57 7.4 3.4 76 999.7 9.8 NW 23.5 0.0 2.5
17:58 7.4 3.4 76 999.7 9.8 NW 23.5 0.0 2.5
17:59 7.4 3.4 76 999.4 16.8 NE 23.5 0.0 2.5
18:00 7.4 3.4 76 999.6 19.0 NW 21.3 0.0 2.5
18:01 7.3 3.4 76 999.3 19.0 S 19.7 0.0 2.5
18:02 7.3 3.4 76 999.3 14.5 W 19.7 0.0 2.5
18:03 7.3 3.4 76 999.4 18.3 N 19.7 0.0 2.5
18:04 7.3 3.4 76 999.4 14.5 SE 19.0 0.0 2.5
18:05 7.3 3.4 76 999.3 17.4 W 19.0 0.0 2.5
18:06 7.2 3.3 76 999.3 22.1 W 22.1 0.0 2.5
18:07 7.2 3.3 76 999.5 22.1 NE 22.1 0.0 2.5
18:08 7.2 3.3 76 999.5 19.7 NW 22.1 0.0 2.5
18:09 7.2 3.4 77 999.5 14.5 NW 22.8 0.0 2.5
18:10 7.2 3.4 77 999.1 17.4 NW 22.8 0.0 2.5
18:11 7.2 3.4 77 999.3 21.3 N 22.8 0.0 2.5
18:12 7.2 3.4 77 999.3 15.9 NW 22.8 0.0 2.5
18:13 7.2 3.4 77 999.6 19.7 NW 22.8 0.0 2.5
18:14 7.2 3.4 77 999.2 20.6 NE 22.8 0.0 2.5
18:15 7.2 3.4 77 999.4 16.8 NW 22.8 0.0 2.5
18:16 7.2 3.4 77 999.3 16.8 NNE 22.8 0.0 2.5
18:17 7.1 3.3 77 999.2 13.0 NW 22.8 0.0 2.5
18:18 7.1 3.2 76 999.2 19.7 NW 22.8 0.0 2.5
18:19 7.1 3.2 76 999.2 15.2 NW 22.8 0.0 2.5
18:20 7.1 3.2 76 999.1 13.6 W 21.3 0.0 2.5
18:21 7.1 3.2 76 999.4 13.6 S 21.3 0.0 2.5
18:22 7.1 3.2 76 999.2 14.5 W 20.6 0.0 2.5
18:23 7.0 3.1 76 999.0 17.4 NW 20.6 0.0 2.5
18:24 7.0 3.1 76 999.0 17.4 NE 20.6 0.0 2.5
18:25 7.0 3.1 76 999.1 19.7 W 19.7 0.0 2.5
18:26 7.0 3.1 76 999.2 18.3 NW 19.7 0.0 2.5
18:27 7.0 3.1 76 999.0 15.2 N 19.7 0.0 2.5
18:28 7.0 3.2 77 999.3 18.3 W 19.7 0.0 2.5
18:29 7.0 3.2 77 999.2 18.3 SW 19.7 0.0 2.5
18:30 7.1 3.3 77 999.1 18.3 N 19.7 0.0 2.5
18:31 7.1 3.3 77 999.1 11.4 N 19.7 0.0 2.5
18:32 7.1 3.3 77 999.2 17.4 NW 19.7 0.0 2.5
18:33 7.1 3.3 77 999.3 18.3 NE 19.7 0.0 2.5
18:34 7.1 3.3 77 999.1 13.0 NW 19.7 0.0 2.5
18:35 7.1 3.2 76 999.3 14.5 N 19.7 0.0 2.5
18:36 7.1 3.2 76 999.1 9.8 W 18.3 0.0 2.5
18:37 7.1 3.2 76 999.0 10.7 NW 18.3 0.0 2.5
18:38 7.1 3.2 76 999.2 15.2 W 18.3 0.0 2.5
18:39 7.1 3.0 75 999.2 11.4 W 18.3 0.0 2.5
18:40 7.1 3.0 75 999.3 15.9 NW 18.3 0.0 2.5
18:41 7.1 2.8 74 999.3 17.4 WNW 18.3 0.0 2.5
18:42 7.1 2.8 74 999.2 15.9 NW 18.3 0.0 2.5
18:43 7.1 2.8 74 999.4 18.3 NW 18.3 0.0 2.5
18:44 7.1 2.8 74 999.3 13.6 NW 18.3 0.0 2.5
18:45 7.1 2.6 73 999.3 19.0 NW 24.4 0.0 2.5
18:46 7.1 2.6 73 999.2 22.8 N 24.4 0.0 2.5
18:47 7.1 2.4 72 999.3 18.3 N 24.4 0.0 2.5
18:48 7.2 2.5 72 999.3 16.8 W 24.4 0.0 2.5
18:49 7.2 2.5 72 999.3 20.6 W 24.4 0.0 2.5
18:50 7.2 2.5 72 999.5 17.4 NW 24.4 0.0 2.5
18:51 7.2 2.3 71 999.3 19.0 NE 24.4 0.0 2.5
18:52 7.2 2.3 71 999.3 18.3 NW 24.4 0.0 2.5
18:53 7.2 2.3 71 999.3 16.8 NW 24.4 0.0 2.5
18:55 7.2 2.3 71 999.3 13.0 NW 24.4 0.0 2.5
18:56 7.2 2.3 71 999.0 15.2 N 22.8 0.0 2.5
18:57 7.2 2.3 71 999.3 13.6 W 21.3 0.0 2.5
18:58 7.2 2.3 71 999.5 15.2 NW 21.3 0.0 2.5
18:59 7.2 2.3 71 999.3 15.9 NW 21.3 0.0 2.5
19:00 7.1 2.2 71 999.4 19.7 NW 21.3 0.0 2.5
19:01 7.1 2.2 71 999.3 19.7 NW 21.3 0.0 2.5
19:02 7.1 2.2 71 999.2 19.7 NW 21.3 0.0 2.5
19:03 7.1 2.2 71 999.3 19.7 NW 21.3 0.0 2.5
19:04 7.1 2.2 71 999.3 19.7 NW 21.3 0.0 2.5
19:05 7.1 2.2 71 999.1 19.7 NW 19.7 0.0 2.5
19:06 7.1 2.2 71 999.3 19.7 NW 19.7 0.0 2.5
19:07 7.1 1.8 69 999.3 19.7 W 19.7 0.0 2.5
19:08 7.1 1.8 69 999.6 21.3 W 21.3 0.0 2.5
19:09 7.1 1.8 69 999.4 15.2 NW 21.3 0.0 2.5
19:10 7.1 1.8 69 999.4 17.4 W 21.3 0.0 2.5
19:11 7.1 1.8 69 999.3 17.4 NW 21.3 0.0 2.5
19:12 7.1 1.8 69 999.5 22.1 N 22.1 0.0 2.5
19:13 7.1 1.8 69 999.4 19.7 W 22.1 0.0 2.5
19:14 7.1 1.8 69 999.6 19.0 NW 22.1 0.0 2.5
19:15 7.1 1.8 69 999.5 15.9 N 22.1 0.0 2.5
19:16 7.1 1.8 69 999.2 19.0 NE 22.1 0.0 2.5
19:17 7.1 1.8 69 999.6 19.7 NW 22.1 0.0 2.5
19:18 7.1 1.8 69 999.6 17.4 SW 22.1 0.0 2.5
19:19 7.1 1.8 69 999.3 20.6 NW 22.1 0.0 2.5
19:20 7.1 1.6 68 999.4 20.6 W 22.1 0.0 2.5
19:21 7.1 1.6 68 999.5 12.1 NW 22.1 0.0 2.5
19:22 7.1 1.6 68 999.2 11.4 W 22.1 0.0 2.5
19:23 7.0 1.7 69 999.4 15.2 NW 20.6 0.0 2.5
19:24 7.0 1.7 69 999.3 17.4 W 20.6 0.0 2.5
19:25 7.0 1.7 69 999.6 11.4 NW 20.6 0.0 2.5
19:26 7.0 1.7 69 999.2 13.6 N 20.6 0.0 2.5
19:27 7.0 1.7 69 999.3 9.8 N 20.6 0.0 2.5
19:28 7.0 1.7 69 999.6 9.2 NW 20.6 0.0 2.5
19:29 7.0 1.7 69 999.1 15.9 NW 20.6 0.0 2.5
19:30 7.0 1.7 69 999.4 19.7 WNW 19.7 0.0 2.5
19:31 7.0 1.7 69 999.3 10.7 NW 19.7 0.0 2.5
19:32 7.0 1.7 69 999.2 14.5 W 19.7 0.0 2.5
19:33 7.0 1.7 69 998.9 8.3 E 19.7 0.0 2.5
19:34 7.0 1.7 69 998.9 8.3 E 19.7 0.0 2.5
19:35 6.9 1.6 69 999.1 13.6 NW 19.7 0.0 2.5
19:36 6.9 1.6 69 998.9 15.9 NW 19.7 0.0 2.5
19:37 6.9 1.6 69 999.2 14.5 N 19.7 0.0 2.5
19:38 6.9 1.6 69 999.1 14.5 W 19.7 0.0 2.5
19:39 6.9 1.6 69 999.2 15.9 NNW 19.7 0.0 2.5
19:40 6.9 1.6 69 999.1 15.9 W 19.7 0.0 2.5
19:41 7.0 1.7 69 998.8 15.9 SE 19.7 0.0 2.5
19:42 7.0 1.7 69 998.8 18.3 NW 19.7 0.0 2.5
19:43 7.0 1.7 69 998.9 18.3 NW 19.7 0.0 2.5
19:44 7.0 1.7 69 998.8 17.4 NE 19.7 0.0 2.5
19:45 7.0 1.7 69 998.8 23.5 W 23.5 0.0 2.5
19:46 7.0 1.7 69 998.7 16.8 WNW 23.5 0.0 2.5
19:47 7.0 1.7 69 998.9 18.3 SW 23.5 0.0 2.5
19:48 7.0 1.5 68 999.1 20.6 NW 23.5 0.0 2.5
19:49 7.0 1.5 68 998.8 13.6 WNW 23.5 0.0 2.5
19:50 7.0 1.5 68 998.9 13.6 N 23.5 0.0 2.5
19:51 7.0 1.5 68 998.7 16.8 NW 23.5 0.0 2.5
19:52 7.0 1.5 68 998.8 19.0 W 23.5 0.0 2.5
19:53 7.0 1.5 68 998.7 20.6 NW 23.5 0.0 2.5
19:54 7.0 1.5 68 998.6 20.6 NW 23.5 0.0 2.5
19:55 7.0 1.5 68 998.8 15.2 NW 23.5 0.0 2.5
19:56 7.0 1.5 68 998.9 13.6 NE 20.6 0.0 2.5
19:57 7.0 1.5 68 998.8 15.9 WNW 20.6 0.0 2.5
19:58 7.0 1.5 68 998.8 27.3 NW 27.3 0.0 2.5
19:59 7.0 1.3 67 999.0 19.0 WNW 27.3 0.0 2.5
20:00 7.0 1.3 67 998.8 16.8 NW 27.3 0.0 2.5
20:01 7.0 1.3 67 998.9 14.5 NW 27.3 0.0 2.5
20:02 7.0 1.5 68 998.8 14.5 W 27.3 0.0 2.5
20:03 7.0 1.5 68 998.6 12.1 NW 27.3 0.0 2.5
20:04 7.0 1.5 68 998.6 24.4 N 27.3 0.0 2.5
20:05 7.0 1.7 69 998.9 17.4 SW 27.3 0.0 2.5
20:06 7.0 1.7 69 998.9 22.8 NW 27.3 0.0 2.5
20:07 7.0 1.7 69 998.7 17.4 N 27.3 0.0 2.5
20:08 7.0 1.7 69 998.7 17.4 N 27.3 0.0 2.5
20:09 7.0 1.7 69 998.7 17.4 N 24.4 0.0 2.5
20:10 7.0 1.7 69 998.7 17.4 N 24.4 0.0 2.5
20:11 7.0 1.7 69 998.8 13.6 NW 24.4 0.0 2.5
20:12 7.0 1.7 69 998.6 16.8 NW 24.4 0.0 2.5
20:13 7.0 1.7 69 998.6 16.8 NW 24.4 0.0 2.5
20:14 7.0 1.7 69 998.7 18.3 W 22.8 0.0 2.5
20:15 7.0 1.7 69 998.8 20.6 NW 22.8 0.0 2.5
20:16 7.0 1.7 69 998.5 21.3 E 21.3 0.0 2.5
20:17 7.0 1.7 69 998.7 14.5 W 21.3 0.0 2.5
20:18 7.0 1.7 69 998.6 14.5 NW 21.3 0.0 2.5
20:19 7.0 1.7 69 998.6 19.0 N 21.3 0.0 2.5
20:20 6.9 1.6 69 998.7 13.0 W 21.3 0.0 2.5
20:21 6.9 1.6 69 998.7 15.2 ESE 21.3 0.0 2.5
20:22 6.9 1.6 69 998.4 22.8 NW 22.8 0.0 2.5
20:23 6.9 1.6 69 998.7 21.3 NW 22.8 0.0 2.5
20:24 6.9 1.8 70 998.9 19.7 N 22.8 0.0 2.5
20:25 6.8 1.7 70 998.8 12.1 S 22.8 0.0 2.5
20:26 6.8 1.7 70 998.7 19.7 N 22.8 0.0 2.5
20:27 6.7 1.6 70 998.6 16.8 NW 22.8 0.0 2.5
20:28 6.7 1.6 70 998.5 16.8 W 22.8 0.0 2.5
20:29 6.6 1.7 71 998.5 25.1 NW 25.1 0.0 2.5
20:30 6.6 1.7 71 998.7 25.1 W 25.1 0.0 2.5
20:31 6.6 1.7 71 998.7 23.5 NW 25.1 0.0 2.5
20:32 6.6 1.7 71 998.6 28.9 NW 28.9 0.0 2.5
20:33 6.6 1.5 70 998.6 25.1 NW 28.9 0.0 2.5
20:34 6.6 1.5 70 998.8 25.1 NW 28.9 0.0 2.5
20:35 6.7 1.4 69 998.9 27.3 NW 28.9 0.0 2.5
20:36 6.7 1.4 69 998.8 23.5 W 28.9 0.0 2.5
20:37 6.7 1.4 69 998.6 19.7 WNW 28.9 0.0 2.5
20:38 6.7 1.4 69 998.7 19.7 WNW 28.9 0.0 2.5
20:39 6.7 1.4 69 998.9 11.4 NW 28.9 0.0 2.5
20:40 6.7 1.4 69 998.7 12.1 SE 28.9 0.0 2.5
20:41 6.7 1.4 69 998.5 20.6 W 28.9 0.0 2.5
20:42 6.7 1.4 69 998.6 14.5 W 27.3 0.0 2.5
20:43 6.7 1.4 69 998.7 15.9 SW 27.3 0.0 2.5
20:44 6.7 1.4 69 998.5 11.4 N 27.3 0.0 2.5
20:45 6.7 1.4 69 998.8 15.2 W 27.3 0.0 2.5
20:46 6.7 1.4 69 998.8 15.2 W 20.6 0.0 2.5
20:47 6.6 1.3 69 998.9 14.5 N 20.6 0.0 2.5
20:48 6.6 1.3 69 998.9 21.3 NE 21.3 0.0 2.5
20:49 6.6 1.3 69 998.7 21.3 SW 21.3 0.0 2.5
20:50 6.6 1.3 69 998.8 20.6 NE 21.3 0.0 2.5
20:51 6.6 1.3 69 998.7 22.1 N 22.1 0.0 2.5
20:52 6.6 1.3 69 998.6 16.8 NE 22.1 0.0 2.5
20:53 6.6 1.3 69 998.7 15.2 WNW 22.1 0.0 2.5
20:54 6.5 1.2 69 998.7 17.4 NW 22.1 0.0 2.5
20:55 6.5 1.4 70 998.9 21.3 SW 22.1 0.0 2.5
20:56 6.5 1.4 70 998.7 19.7 WSW 22.1 0.0 2.5
20:57 6.5 1.4 70 998.7 28.2 N 28.2 0.0 2.5
20:58 6.6 1.5 70 998.7 22.1 NE 28.2 0.0 2.5
20:59 6.6 1.5 70 998.7 24.4 NE 28.2 0.0 2.5
21:00 6.6 1.5 70 998.4 24.4 NW 28.2 0.0 2.5
21:01 6.6 1.5 70 999.0 24.4 NW 28.2 0.0 2.5
21:02 6.6 1.5 70 998.7 24.4 NW 28.2 0.0 2.5
21:03 6.6 1.5 70 998.7 24.4 NW 28.2 0.0 2.5
21:04 6.6 1.5 70 998.7 24.4 NW 28.2 0.0 2.5
21:05 6.6 1.5 70 998.5 24.4 NW 28.2 0.0 2.5
21:06 6.6 1.5 70 998.6 24.4 NW 28.2 0.0 2.5
21:07 6.5 0.8 67 998.9 15.2 NW 28.2 0.0 2.5
21:08 6.4 0.5 66 998.6 21.3 NW 24.4 0.0 2.5
21:09 6.4 0.5 66 998.5 21.3 NW 24.4 0.0 2.5
21:10 6.4 0.3 65 998.5 19.0 W 24.4 0.0 2.5
21:11 6.4 0.3 65 998.6 20.6 NW 24.4 0.0 2.5
21:12 6.4 0.1 64 998.6 25.1 NW 25.1 0.0 2.5
21:13 6.4 0.1 64 998.5 13.6 NW 25.1 0.0 2.5
21:14 6.4 0.1 64 998.7 17.4 N 25.1 0.0 2.5
21:15 6.4 0.1 64 998.6 15.9 NW 25.1 0.0 2.5
21:16 6.4 0.1 64 998.8 15.9 NE 25.1 0.0 2.5
21:17 6.4 0.1 64 998.5 22.8 NW 25.1 0.0 2.5
21:18 6.4 0.1 64 998.4 15.9 NW 25.1 0.0 2.5
21:19 6.4 0.1 64 998.6 17.4 S 25.1 0.0 2.5
21:20 6.4 0.3 65 998.4 17.4 W 25.1 0.0 2.5
21:21 6.4 0.3 65 998.7 26.6 NE 26.6 0.0 2.5
21:22 6.4 0.3 65 998.4 19.0 NW 26.6 0.0 2.5
21:23 6.5 0.6 66 998.4 19.0 NE 26.6 0.0 2.5
21:24 6.5 0.6 66 998.5 19.0 W 26.6 0.0 2.5
21:25 6.5 0.8 67 998.5 22.1 N 26.6 0.0 2.5
21:26 6.4 0.7 67 998.5 24.4 N 26.6 0.0 2.5
21:27 6.4 0.9 68 998.5 13.6 NW 26.6 0.0 2.5
21:28 6.4 0.9 68 998.4 13.6 N 26.6 0.0 2.5
21:29 6.3 0.8 68 998.5 19.7 NE 26.6 0.0 2.5
21:30 6.3 0.6 67 998.4 19.7 NW 26.6 0.0 2.5
21:31 6.3 0.6 67 998.5 23.5 W 24.4 0.0 2.5
21:32 6.3 0.6 67 998.5 19.7 NE 24.4 0.0 2.5
21:33 6.3 0.4 66 998.8 24.4 SE 24.4 0.0 2.5
21:34 6.3 0.4 66 998.5 20.6 W 24.4 0.0 2.5
21:35 6.3 0.4 66 998.6 22.1 NW 24.4 0.0 2.5
21:36 6.3 0.4 66 998.3 22.1 NW 24.4 0.0 2.5
21:37 6.3 0.4 66 998.4 12.1 N 24.4 0.0 2.5
21:38 6.3 0.4 66 998.6 18.3 W 24.4 0.0 2.5
21:39 6.3 0.4 66 998.6 19.7 NE 24.4 0.0 2.5
21:40 6.2 0.3 66 998.6 13.6 W 24.4 0.0 2.5
21:41 6.2 0.3 66 998.7 19.0 N 24.4 0.0 2.5
21:42 6.2 0.3 66 998.4 22.1 NE 24.4 0.0 2.5
21:43 6.2 0.3 66 998.5 22.1 NW 24.4 0.0 2.5
21:44 6.2 0.3 66 998.6 23.5 NW 23.5 0.0 2.5
21:45 6.2 0.3 66 998.3 19.0 W 23.5 0.0 2.5
21:46 6.2 0.3 66 998.4 23.5 N 23.5 0.0 2.5
21:47 6.2 0.3 66 998.5 19.0 E 23.5 0.0 2.5
21:48 6.2 0.3 66 998.1 18.3 W 23.5 0.0 2.5
21:49 6.2 0.3 66 998.5 21.3 NW 23.5 0.0 2.5
21:50 6.2 0.3 66 998.5 21.3 NW 23.5 0.0 2.5
21:51 6.3 0.4 66 998.3 19.7 SW 23.5 0.0 2.5
21:52 6.3 0.4 66 998.3 19.7 SW 23.5 0.0 2.5
21:53 6.3 0.6 67 998.6 17.4 N 23.5 0.0 2.5
21:54 6.3 0.6 67 998.6 14.5 N 23.5 0.0 2.5
21:55 6.3 0.6 67 998.3 14.5 N 23.5 0.0 2.5
21:56 6.3 0.8 68 998.5 14.5 S 23.5 0.0 2.5
21:57 6.3 0.8 68 998.5 15.9 NW 21.3 0.8 2.5
21:58 6.3 0.8 68 998.4 16.8 W 21.3 0.8 2.5
21:59 6.3 0.8 68 998.5 21.3 N 21.3 0.8 2.5
22:00 6.3 0.8 68 998.4 22.1 N 22.1 0.8 2.5
22:01 6.3 0.8 68 998.5 24.4 NW 24.4 0.8 2.5
22:02 6.4 0.9 68 998.4 21.3 W 24.4 0.0 2.5
22:03 6.3 0.8 68 998.2 16.8 W 24.4 0.0 2.5
22:04 6.3 0.8 68 998.2 19.7 WNW 24.4 0.0 2.5
22:05 6.3 0.8 68 998.4 17.4 W 24.4 0.0 2.5
22:06 6.3 0.8 68 998.5 13.6 N 24.4 0.0 2.5
22:07 6.3 0.8 68 998.5 22.1 NW 24.4 0.0 2.5
22:08 6.3 1.0 69 998.1 17.4 N 24.4 0.0 2.5
22:09 6.3 1.0 69 998.2 20.6 W 24.4 0.0 2.5
22:10 6.3 1.0 69 998.4 15.9 WNW 24.4 0.0 2.5
22:11 6.3 1.0 69 998.4 15.2 NE 24.4 0.0 2.5
22:12 6.3 1.0 69 998.6 24.4 NW 24.4 0.0 2.5
22:13 6.3 1.0 69 998.1 25.1 NW 25.1 0.0 2.5
22:14 6.3 1.0 69 998.3 26.6 NE 26.6 0.0 2.5
22:15 6.3 1.0 69 998.0 22.1 W 26.6 0.0 2.5
22:16 6.3 1.0 69 998.3 19.0 N 26.6 0.0 2.5
22:17 6.3 1.0 69 998.2 20.6 E 26.6 0.0 2.5
22:18 6.3 1.0 69 998.2 20.6 N 26.6 0.0 2.5
22:19 6.3 1.0 69 998.1 22.8 N 26.6 0.0 2.5
22:20 6.3 1.0 69 997.6 22.8 W 26.6 0.0 2.5
22:21 6.3 1.0 69 998.3 22.8 NW 26.6 0.0 2.5
22:22 6.3 1.0 69 998.0 22.1 NW 26.6 0.0 2.5
22:23 6.3 1.0 69 998.2 21.3 N 26.6 0.0 2.5
22:24 6.3 1.0 69 998.2 21.3 W 26.6 0.0 2.5
22:25 6.4 1.1 69 998.2 24.4 NW 24.4 0.0 2.5
22:26 6.3 1.0 69 998.0 19.0 NE 24.4 0.0 2.5
22:27 6.3 1.0 69 998.2 19.7 NW 24.4 0.8 2.6
22:28 6.3 1.0 69 998.2 21.3 NW 24.4 0.8 2.6
22:29 6.3 1.0 69 997.8 22.1 NE 24.4 0.8 2.6
22:30 6.2 0.9 69 998.1 22.1 NW 24.4 0.8 2.6
22:31 6.2 0.9 69 998.1 15.9 W 24.4 0.8 2.6
22:32 6.2 0.9 69 998.1 14.5 W 24.4 0.0 2.6
22:33 6.2 1.1 70 998.2 24.4 W 24.4 0.0 2.6
22:34 6.2 1.1 70 997.9 24.4 W 24.4 0.0 2.6
22:35 6.2 1.1 70 997.9 17.4 NW 24.4 0.0 2.6
22:36 6.2 1.1 70 998.1 17.4 NW 24.4 0.0 2.6
22:37 6.1 1.0 70 997.7 21.3 NW 24.4 0.0 2.6
22:38 6.0 0.9 70 997.7 21.3 W 24.4 0.0 2.6
22:39 6.0 0.9 70 997.7 16.8 WNW 24.4 0.0 2.6
22:40 5.9 1.0 71 997.8 16.8 NW 24.4 0.0 2.6
22:41 5.9 1.0 71 997.9 22.1 NW 24.4 0.0 2.6
22:42 5.9 1.0 71 997.7 18.3 NE 24.4 0.0 2.6
22:43 5.9 1.0 71 998.0 15.2 N 24.4 0.0 2.6
22:44 5.9 1.0 71 998.1 21.3 NW 24.4 0.0 2.6
22:45 5.9 1.2 72 998.0 22.8 N 22.8 0.0 2.6
22:46 5.9 1.2 72 997.7 22.1 NW 22.8 0.0 2.6
22:47 5.9 1.2 72 997.9 22.1 W 22.8 0.0 2.6
22:48 5.9 1.4 73 997.9 15.2 NW 22.8 0.0 2.6
22:49 5.9 1.4 73 997.8 15.2 NW 22.8 0.0 2.6
22:50 5.9 1.4 73 998.1 15.2 NW 22.8 0.0 2.6
22:51 5.9 1.4 73 997.8 14.5 NW 22.8 0.0 2.6
22:52 5.9 1.6 74 997.8 22.8 SW 22.8 0.0 2.6
22:53 5.9 1.6 74 998.1 21.3 NW 22.8 0.8 2.6
22:54 5.9 1.6 74 997.8 27.3 NW 27.3 0.8 2.6
22:55 6.0 1.7 74 997.7 15.9 NW 27.3 0.8 2.6
22:56 6.0 1.7 74 997.9 14.5 N 27.3 0.8 2.6
22:57 6.0 1.7 74 998.0 25.9 W 27.3 0.0 2.6
22:58 6.0 1.5 73 998.1 22.1 W 27.3 0.0 2.6
22:59 6.0 1.5 73 998.0 25.9 NW 27.3 0.0 2.6
23:00 6.0 1.3 72 997.9 18.3 NE 27.3 0.0 2.6
23:01 6.0 1.3 72 997.9 18.3 NE 27.3 0.0 2.6
23:02 6.0 1.3 72 998.1 18.3 NE 27.3 0.0 2.6
23:03 6.0 1.3 72 997.9 18.3 NE 27.3 0.0 2.6
23:04 6.0 1.3 72 998.0 18.3 NE 25.9 0.0 2.6
23:05 6.0 1.3 72 997.9 18.3 NE 25.9 0.0 2.6
23:06 6.1 1.4 72 998.3 22.1 SE 25.9 0.0 2.6
23:07 6.1 1.4 72 997.8 22.1 SE 25.9 0.0 2.6
23:08 6.2 1.3 71 998.2 15.2 SE 25.9 0.0 2.6
23:09 6.2 1.3 71 998.1 14.5 SE 25.9 0.0 2.6
23:10 6.2 1.3 71 998.1 13.6 NW 22.1 0.0 2.6
23:11 6.1 1.2 71 998.3 16.8 N 22.1 0.0 2.6
23:12 6.1 1.2 71 997.9 24.4 W 24.4 0.0 2.6
23:13 6.1 1.2 71 998.3 28.2 N 28.2 0.0 2.6
23:14 6.1 1.0 70 998.3 30.4 NW 30.4 0.0 2.6
23:15 6.1 1.0 70 998.2 19.7 W 30.4 0.0 2.6
23:16 6.1 1.0 70 998.3 15.9 NW 30.4 0.0 2.6
23:17 6.1 1.0 70 998.4 18.3 WNW 30.4 0.0 2.6
23:18 6.1 1.0 70 998.3 25.9 NW 30.4 0.0 2.6
23:19 6.1 1.0 70 998.2 24.4 W 30.4 0.0 2.6
23:20 6.1 1.0 70 998.2 24.4 N 30.4 0.0 2.6
23:21 6.1 1.0 70 998.3 25.9 NW 30.4 0.0 2.6
23:22 6.1 1.0 70 998.4 25.1 NE 30.4 0.0 2.6
23:23 6.1 1.0 70 998.6 14.5 N 30.4 0.0 2.6
23:24 6.1 1.0 70 998.5 17.4 S 25.9 0.0 2.6
23:25 6.1 1.0 70 998.3 19.7 N 25.9 0.0 2.6
23:26 6.1 1.0 70 998.3 19.7 N 25.9 0.0 2.6
23:27 6.1 1.0 70 998.3 15.9 NE 25.9 0.0 2.6
23:28 6.1 1.0 70 998.4 31.1 N 31.1 0.0 2.6
23:29 6.1 1.0 70 998.5 31.1 NW 31.1 0.0 2.6
23:30 6.1 1.0 70 998.5 20.6 SE 31.1 0.0 2.6
23:31 6.2 1.1 70 998.5 20.6 W 31.1 0.0 2.6
23:32 6.2 1.1 70 998.5 19.7 E 31.1 0.0 2.6
23:33 6.2 1.3 71 998.2 15.2 W 31.1 0.0 2.6
23:35 6.2 1.3 71 998.1 21.3 NW 31.1 0.0 2.6
23:36 6.2 1.3 71 998.3 15.2 NE 31.1 0.0 2.6
23:37 6.2 1.3 71 998.5 15.9 E 31.1 0.0 2.6
23:38 6.2 1.3 71 998.2 15.9 E 31.1 0.0 2.6
23:39 6.2 1.3 71 998.2 24.4 NW 31.1 0.0 2.6
23:40 6.2 1.3 71 998.2 24.4 NW 24.4 0.0 2.6
23:41 6.2 1.5 72 998.3 19.0 N 24.4 0.0 2.6
23:42 6.2 1.5 72 998.4 9.8 NW 24.4 0.0 2.6
23:43 6.2 1.5 72 998.3 15.9 N 24.4 0.0 2.6
23:44 6.2 1.5 72 998.4 21.3 NE 24.4 0.0 2.6
23:45 6.2 1.5 72 998.4 15.9 N 24.4 0.0 2.6
23:46 6.2 1.5 72 998.6 14.5 N 24.4 0.0 2.6
23:47 6.2 1.5 72 998.4 15.2 N 24.4 0.0 2.6
23:48 6.2 1.5 72 998.2 13.0 SE 24.4 0.0 2.6
23:49 6.2 1.5 72 998.3 15.9 N 24.4 0.0 2.6
23:51 6.2 1.5 72 998.2 19.0 N 21.3 0.0 2.6
23:52 6.2 1.5 72 998.1 13.0 N 21.3 0.0 2.6
23:53 6.2 1.5 72 998.3 10.7 N 21.3 0.0 2.6
23:54 6.2 1.7 73 998.4 15.2 N 21.3 0.0 2.6
23:55 6.2 1.7 73 998.2 9.8 NW 19.7 0.0 2.6
23:56 6.2 1.7 73 998.4 23.5 W 23.5 0.0 2.6
23:57 6.2 1.7 73 998.1 17.4 N 23.5 0.0 2.6
23:58 6.2 1.7 73 998.1 15.9 NW 23.5 0.0 2.6
23:59 6.2 1.9 74 998.1 15.2 NW 23.5 0.0 2.6

 

 

UK - WEATHER STATION TOPSITES - UK World Weather Websites

Copyright © Carnkie Weather 2009 - 2022.